| time (UTC) | temp C | wind direction | speed KPH | gust KPH | rain 1hr cm | rain 24hr cm | rain mn cm | humidity % | barometer mb |
| 20260902152125 | 26 | 121 | 3.2 | 9.7 | 0.00 | 0.00 | 0.00 | 74 | 1018.0 |
| 20260902150621 | 27 | 119 | 3.2 | 8.0 | 0.00 | 0.00 | 0.00 | 73 | 1018.0 |
| 20260902145117 | 27 | 116 | 4.8 | 8.0 | 0.00 | 0.00 | 0.00 | 72 | 1018.0 |
| 20260902143614 | 27 | 120 | 3.2 | 0.0 | 0.00 | 0.00 | 0.00 | 72 | 1018.0 |
| 20260902142110 | 27 | 109 | 4.8 | 9.7 | 0.00 | 0.00 | 0.00 | 72 | 1018.0 |
| 20260902135102 | 27 | 122 | 4.8 | 9.7 | 0.00 | 0.00 | 0.00 | 72 | 1018.0 |
| 20260902125047 | 28 | 120 | 4.8 | 11.3 | 0.00 | 0.00 | 0.00 | 68 | 1018.0 |
| 20260902122039 | 27 | 121 | 6.4 | 9.7 | 0.00 | 0.00 | 0.00 | 69 | 1018.0 |
| 20260902121351 | 28 | 116 | 3.2 | 3.2 | 0.00 | 0.00 | 0.00 | 69 | 1018.0 |
| 20260902103054 | 27 | 125 | 4.8 | 11.3 | 0.00 | 0.00 | 0.00 | 69 | 1018.0 |
| 20260902100046 | 28 | 121 | 4.8 | 9.7 | 0.00 | 0.00 | 0.00 | 65 | 1018.0 |
| 20260902083527 | 28 | 132 | 0.0 | 0.0 | 0.00 | 0.00 | 0.00 | 59 | 1018.0 |
| 20260902081737 | 27 | 132 | 3.2 | 3.2 | 0.00 | 0.00 | 0.00 | 62 | 1018.0 |
| 20260902081015 | 27 | 132 | 3.2 | 3.2 | 0.00 | 0.00 | 0.00 | 65 | 1018.0 |
| 20260902065739 | 0 | 142 | 3.2 | 3.2 | 0.00 | 0.00 | 0.00 | 1 | 1018.0 |
| 20260902055356 | 20 | 142 | 0.0 | 0.0 | 0.00 | 0.00 | 0.00 | 83 | 1018.0 |
| 20260902055332 | 20 | 141 | 3.2 | 0.0 | 0.00 | 0.00 | 0.00 | 83 | 1018.0 |
| 20260902055253 | 20 | 141 | 3.2 | 0.0 | 0.00 | 0.00 | 0.00 | 83 | 1018.0 |
| 20260902055211 | 20 | 141 | 3.2 | 0.0 | 0.00 | 0.00 | 0.00 | 83 | 1018.0 |
| 20260902055140 | 20 | 300 | 3.2 | 0.0 | 0.00 | 0.00 | 0.00 | 83 | 1018.0 |
| 20260902055041 | 20 | 300 | 0.0 | 0.0 | 0.00 | 0.00 | 0.00 | 83 | 1018.0 |
| 20260902055030 | 20 | 300 | 3.2 | 0.0 | 0.00 | 0.00 | 0.00 | 83 | 1018.0 |
| 20260902054959 | 20 | 300 | 3.2 | 0.0 | 0.00 | 0.00 | 0.00 | 83 | 1018.0 |
| 20260902054949 | 20 | 300 | 4.8 | 0.0 | 0.00 | 0.00 | 0.00 | 83 | 1018.0 |
| 20260902054917 | 20 | 300 | 4.8 | 0.0 | 0.00 | 0.00 | 0.00 | 83 | 1018.0 |
| 20260902054853 | 20 | 311 | 6.4 | 0.0 | 0.00 | 0.00 | 0.00 | 83 | 1018.0 |
| 20260902054830 | 20 | 154 | 3.2 | 0.0 | 0.00 | 0.00 | 0.00 | 84 | 1018.0 |
| 20260902054747 | 20 | 154 | 3.2 | 0.0 | 0.00 | 0.00 | 0.00 | 84 | 1018.0 |
| 20260902054715 | 20 | 154 | 3.2 | 0.0 | 0.00 | 0.00 | 0.00 | 84 | 1018.0 |
| 20260902054637 | 20 | 154 | 1.6 | 0.0 | 0.00 | 0.00 | 0.00 | 84 | 1018.0 |
| 20260902054627 | 20 | 154 | 1.6 | 1.6 | 0.00 | 0.00 | 0.00 | 84 | 1018.0 |
| 20260902054555 | 20 | 186 | 0.0 | 0.0 | 0.00 | 0.00 | 0.00 | 84 | 1018.0 |
| 20260902054545 | 20 | 192 | 1.6 | 0.0 | 0.00 | 0.00 | 0.00 | 84 | 1018.0 |
| 20260902054507 | 20 | 192 | 1.6 | 0.0 | 0.00 | 0.00 | 0.00 | 84 | 1018.0 |
| 20260902054456 | 20 | 162 | 3.2 | 0.0 | 0.00 | 0.00 | 0.00 | 84 | 1018.0 |
| 20260902054418 | 20 | 162 | 3.2 | 0.0 | 0.00 | 0.00 | 0.00 | 84 | 1018.0 |
| 20260902054357 | 20 | 150 | 3.2 | 0.0 | 0.00 | 0.00 | 0.00 | 85 | 1018.0 |
| 20260902054330 | 20 | 144 | 4.8 | 0.0 | 0.00 | 0.00 | 0.00 | 85 | 1018.0 |
| 20260902054251 | 20 | 126 | 3.2 | 0.0 | 0.00 | 0.00 | 0.00 | 85 | 1018.0 |
| 20260902054155 | 20 | 120 | 4.8 | 0.0 | 0.00 | 0.00 | 0.00 | 85 | 1018.0 |
| 20260902054145 | 20 | 131 | 3.2 | 0.0 | 0.00 | 0.00 | 0.00 | 86 | 1018.0 |
| 20260902054025 | 20 | 131 | 3.2 | 0.0 | 0.00 | 0.00 | 0.00 | 86 | 1018.0 |
| 20260902054014 | 20 | 131 | 3.2 | 3.2 | 0.00 | 0.00 | 0.00 | 86 | 1018.0 |
| 20260902053953 | 20 | 131 | 1.6 | 0.0 | 0.00 | 0.00 | 0.00 | 85 | 1018.0 |
| 20260902053940 | 20 | 131 | 1.6 | 1.6 | 0.00 | 0.00 | 0.00 | 85 | 1018.0 |
| 20260902053908 | 20 | 131 | 3.2 | 0.0 | 0.00 | 0.00 | 0.00 | 85 | 1018.0 |
| 20260902053837 | 20 | 124 | 4.8 | 0.0 | 0.00 | 0.00 | 0.00 | 85 | 1018.0 |
| 20260902053759 | 20 | 124 | 3.2 | 0.0 | 0.00 | 0.00 | 0.00 | 85 | 1018.0 |
| 20260902053748 | 20 | 137 | 3.2 | 0.0 | 0.00 | 0.00 | 0.00 | 85 | 1018.0 |
| 20260902053717 | 20 | 137 | 3.2 | 0.0 | 0.00 | 0.00 | 0.00 | 85 | 1018.0 |
| 20260902053703 | 20 | 137 | 3.2 | 3.2 | 0.00 | 0.00 | 0.00 | 85 | 1018.0 |
| 20260902053639 | 20 | 186 | 3.2 | 0.0 | 0.00 | 0.00 | 0.00 | 85 | 1018.0 |
| 20260902053628 | 20 | 186 | 3.2 | 3.2 | 0.00 | 0.00 | 0.00 | 85 | 1018.0 |
| 20260902053553 | 20 | 210 | 8.0 | 0.0 | 0.00 | 0.00 | 0.00 | 85 | 1018.0 |
| 20260902053512 | 20 | 125 | 6.4 | 0.0 | 0.00 | 0.00 | 0.00 | 85 | 1018.0 |
| 20260902053437 | 20 | 126 | 8.0 | 0.0 | 0.00 | 0.00 | 0.00 | 83 | 1018.0 |
| 20260902053426 | 20 | 126 | 8.0 | 8.0 | 0.00 | 0.00 | 0.00 | 83 | 1018.0 |
| 20260902053352 | 20 | 136 | 6.4 | 0.0 | 0.00 | 0.00 | 0.00 | 83 | 1018.0 |
| 20260902053341 | 20 | 136 | 6.4 | 6.4 | 0.00 | 0.00 | 0.00 | 83 | 1018.0 |
| 20260902053327 | 20 | 120 | 4.8 | 0.0 | 0.00 | 0.00 | 0.00 | 83 | 1018.0 |
| 20260902053256 | 20 | 120 | 4.8 | 0.0 | 0.00 | 0.00 | 0.00 | 83 | 1018.0 |
| 20260902053218 | 20 | 120 | 4.8 | 0.0 | 0.00 | 0.00 | 0.00 | 83 | 1018.0 |
| 20260902053147 | 21 | 143 | 3.2 | 0.0 | 0.00 | 0.00 | 0.00 | 82 | 1018.0 |
| 20260902053111 | 21 | 108 | 6.4 | 0.0 | 0.00 | 0.00 | 0.00 | 82 | 1018.0 |
| 20260902053058 | 21 | 311 | 3.2 | 0.0 | 0.00 | 0.00 | 0.00 | 82 | 1018.0 |
| 20260902053023 | 21 | 311 | 3.2 | 0.0 | 0.00 | 0.00 | 0.00 | 82 | 1018.0 |
| 20260902052951 | 21 | 306 | 8.0 | 0.0 | 0.00 | 0.00 | 0.00 | 82 | 1018.0 |
| 20260902052941 | 21 | 306 | 8.0 | 8.0 | 0.00 | 0.00 | 0.00 | 82 | 1018.0 |
| 20260902052910 | 21 | 300 | 3.2 | 0.0 | 0.00 | 0.00 | 0.00 | 82 | 1018.0 |
| 20260902052859 | 21 | 283 | 0.0 | 0.0 | 0.00 | 0.00 | 0.00 | 82 | 1018.0 |
| 20260902052826 | 21 | 283 | 0.0 | 0.0 | 0.00 | 0.00 | 0.00 | 82 | 1018.0 |
| 20260902052732 | 21 | 283 | 0.0 | 0.0 | 0.00 | 0.00 | 0.00 | 82 | 1018.0 |
| 20260902052701 | 21 | 283 | 1.6 | 0.0 | 0.00 | 0.00 | 0.00 | 83 | 1018.0 |
| 20260902052650 | 21 | 283 | 1.6 | 1.6 | 0.00 | 0.00 | 0.00 | 83 | 1018.0 |
| 20260902052630 | 21 | 283 | 3.2 | 0.0 | 0.00 | 0.00 | 0.00 | 83 | 1018.0 |
| 20260902052544 | 21 | 283 | 0.0 | 0.0 | 0.00 | 0.00 | 0.00 | 83 | 1018.0 |
| 20260902052513 | 21 | 283 | 1.6 | 0.0 | 0.00 | 0.00 | 0.00 | 83 | 1018.0 |
| 20260902052503 | 21 | 283 | 1.6 | 1.6 | 0.00 | 0.00 | 0.00 | 83 | 1018.0 |
| 20260902052452 | 21 | 284 | 0.0 | 0.0 | 0.00 | 0.00 | 0.00 | 83 | 1018.0 |
| 20260902052421 | 21 | 284 | 0.0 | 0.0 | 0.00 | 0.00 | 0.00 | 83 | 1018.0 |
| 20260902052410 | 21 | 284 | 0.0 | 0.0 | 0.00 | 0.00 | 0.00 | 82 | 1018.0 |
| 20260902052326 | 21 | 284 | 0.0 | 0.0 | 0.00 | 0.00 | 0.00 | 82 | 1018.0 |
| 20260902052254 | 20 | 284 | 3.2 | 0.0 | 0.00 | 0.00 | 0.00 | 83 | 1018.0 |
| 20260902052219 | 20 | 284 | 3.2 | 0.0 | 0.00 | 0.00 | 0.00 | 83 | 1018.0 |
| 20260902052148 | 20 | 192 | 3.2 | 0.0 | 0.00 | 0.00 | 0.00 | 83 | 1018.0 |
| 20260902052137 | 20 | 144 | 3.2 | 0.0 | 0.00 | 0.00 | 0.00 | 83 | 1018.0 |
| 20260902052106 | 20 | 144 | 3.2 | 0.0 | 0.00 | 0.00 | 0.00 | 83 | 1018.0 |
| 20260902052017 | 20 | 119 | 3.2 | 0.0 | 0.00 | 0.00 | 0.00 | 82 | 1018.0 |
| 20260902051949 | 20 | 119 | 3.2 | 0.0 | 0.00 | 0.00 | 0.00 | 83 | 1018.0 |
| 20260902051939 | 20 | 119 | 3.2 | 3.2 | 0.00 | 0.00 | 0.00 | 83 | 1018.0 |
| 20260902051908 | 20 | 119 | 3.2 | 0.0 | 0.00 | 0.00 | 0.00 | 83 | 1018.0 |
| 20260902051847 | 20 | 85 | 0.0 | 0.0 | 0.00 | 0.00 | 0.00 | 83 | 1018.0 |
| 20260902051826 | 20 | 85 | 1.6 | 0.0 | 0.00 | 0.00 | 0.00 | 83 | 1018.0 |
| 20260902051755 | 20 | 85 | 1.6 | 0.0 | 0.00 | 0.00 | 0.00 | 83 | 1018.0 |
| 20260902051734 | 20 | 85 | 3.2 | 0.0 | 0.00 | 0.00 | 0.00 | 84 | 1018.0 |
| 20260902051702 | 20 | 85 | 3.2 | 0.0 | 0.00 | 0.00 | 0.00 | 84 | 1018.0 |
| 20260902051631 | 20 | 85 | 3.2 | 0.0 | 0.00 | 0.00 | 0.00 | 84 | 1018.0 |
| 20260902051556 | 20 | 85 | 0.0 | 0.0 | 0.00 | 0.00 | 0.00 | 84 | 1018.0 |
| 20260902051525 | 20 | 85 | 3.2 | 0.0 | 0.00 | 0.00 | 0.00 | 84 | 1018.0 |
| 20260902051514 | 20 | 85 | 3.2 | 3.2 | 0.00 | 0.00 | 0.00 | 84 | 1018.0 |
| 20260902051504 | 20 | 36 | 3.2 | 0.0 | 0.00 | 0.00 | 0.00 | 84 | 1018.0 |
| 20260902051433 | 20 | 36 | 3.2 | 0.0 | 0.00 | 0.00 | 0.00 | 84 | 1018.0 |
| 20260902051401 | 20 | 24 | 1.6 | 0.0 | 0.00 | 0.00 | 0.00 | 84 | 1018.0 |
| 20260902051351 | 20 | 24 | 1.6 | 1.6 | 0.00 | 0.00 | 0.00 | 84 | 1018.0 |
| 20260902051330 | 20 | 24 | 3.2 | 0.0 | 0.00 | 0.00 | 0.00 | 84 | 1018.0 |
| 20260902051245 | 20 | 283 | 4.8 | 0.0 | 0.00 | 0.00 | 0.00 | 84 | 1018.0 |
| 20260902051200 | 20 | 299 | 1.6 | 0.0 | 0.00 | 0.00 | 0.00 | 84 | 1018.0 |
| 20260902051149 | 20 | 299 | 1.6 | 0.0 | 0.00 | 0.00 | 0.00 | 84 | 1018.0 |
| 20260902051118 | 20 | 299 | 1.6 | 0.0 | 0.00 | 0.00 | 0.00 | 84 | 1018.0 |
| 20260902051036 | 20 | 303 | 0.0 | 0.0 | 0.00 | 0.00 | 0.00 | 84 | 1018.0 |
| 20260902051015 | 20 | 303 | 3.2 | 0.0 | 0.00 | 0.00 | 0.00 | 84 | 1018.0 |
| 20260902050944 | 20 | 303 | 3.2 | 0.0 | 0.00 | 0.00 | 0.00 | 84 | 1018.0 |
| 20260902050909 | 20 | 303 | 3.2 | 0.0 | 0.00 | 0.00 | 0.00 | 84 | 1018.0 |
| 20260902050848 | 20 | 305 | 6.4 | 0.0 | 0.00 | 0.00 | 0.00 | 85 | 1018.0 |
| 20260902050838 | 20 | 328 | 4.8 | 0.0 | 0.00 | 0.00 | 0.00 | 86 | 1018.0 |
| 20260902050826 | 20 | 130 | 3.2 | 0.0 | 0.00 | 0.00 | 0.00 | 86 | 1018.0 |
| 20260902050732 | 20 | 130 | 3.2 | 0.0 | 0.00 | 0.00 | 0.00 | 86 | 1018.0 |
| 20260902050700 | 20 | 312 | 3.2 | 0.0 | 0.00 | 0.00 | 0.00 | 86 | 1018.0 |
| 20260902050619 | 20 | 318 | 3.2 | 0.0 | 0.00 | 0.00 | 0.00 | 86 | 1018.0 |
| 20260902050608 | 20 | 318 | 1.6 | 0.0 | 0.00 | 0.00 | 0.00 | 88 | 1018.0 |
| 20260902050530 | 20 | 318 | 1.6 | 0.0 | 0.00 | 0.00 | 0.00 | 88 | 1018.0 |
| 20260902050519 | 20 | 318 | 0.0 | 0.0 | 0.00 | 0.00 | 0.00 | 89 | 1018.0 |
| 20260902050448 | 20 | 318 | 0.0 | 0.0 | 0.00 | 0.00 | 0.00 | 89 | 1018.0 |
| 20260902050417 | 20 | 318 | 0.0 | 0.0 | 0.00 | 0.00 | 0.00 | 90 | 1018.0 |
| 20260902050342 | 20 | 318 | 3.2 | 0.0 | 0.00 | 0.00 | 0.00 | 90 | 1018.0 |
| 20260902050253 | 20 | 318 | 0.0 | 0.0 | 0.00 | 0.00 | 0.00 | 89 | 1018.0 |
| 20260902050232 | 20 | 318 | 3.2 | 0.0 | 0.00 | 0.00 | 0.00 | 89 | 1018.0 |
| 20260902050215 | 20 | 318 | 3.2 | 3.2 | 0.00 | 0.00 | 0.00 | 89 | 1018.0 |
| 20260902050144 | 20 | 318 | 1.6 | 0.0 | 0.00 | 0.00 | 0.00 | 88 | 1018.0 |
| 20260902050112 | 20 | 318 | 0.0 | 0.0 | 0.00 | 0.00 | 0.00 | 88 | 1018.0 |
| 20260902050059 | 20 | 318 | 0.0 | 0.0 | 0.00 | 0.00 | 0.00 | 88 | 1018.0 |
| 20260902050008 | 20 | 318 | 0.0 | 0.0 | 0.00 | 0.00 | 0.00 | 88 | 1018.0 |
| 20260902045858 | 20 | 318 | 0.0 | 0.0 | 0.00 | 0.00 | 0.00 | 88 | 1018.0 |
| 20260902045826 | 20 | 318 | 0.0 | 0.0 | 0.00 | 0.00 | 0.00 | 88 | 1018.0 |
| 20260902045737 | 20 | 318 | 0.0 | 0.0 | 0.00 | 0.00 | 0.00 | 88 | 1018.0 |
| 20260902045705 | 20 | 318 | 0.0 | 0.0 | 0.00 | 0.00 | 0.00 | 88 | 1018.0 |
| 20260902045644 | 20 | 318 | 0.0 | 0.0 | 0.00 | 0.00 | 0.00 | 87 | 1018.0 |
| 20260902045559 | 20 | 318 | 0.0 | 0.0 | 0.00 | 0.00 | 0.00 | 87 | 1018.0 |
| 20260902045524 | 20 | 318 | 1.6 | 0.0 | 0.00 | 0.00 | 0.00 | 87 | 1018.0 |
| 20260902045514 | 20 | 318 | 1.6 | 1.6 | 0.00 | 0.00 | 0.00 | 87 | 1018.0 |
| 20260902045446 | 20 | 318 | 0.0 | 0.0 | 0.00 | 0.00 | 0.00 | 87 | 1018.0 |
| 20260902045415 | 20 | 318 | 0.0 | 0.0 | 0.00 | 0.00 | 0.00 | 87 | 1018.0 |
| 20260902045343 | 20 | 318 | 0.0 | 0.0 | 0.00 | 0.00 | 0.00 | 87 | 1018.0 |
| 20260902045324 | 20 | 318 | 0.0 | 0.0 | 0.00 | 0.00 | 0.00 | 86 | 1018.0 |
| 20260902045241 | 20 | 318 | 0.0 | 0.0 | 0.00 | 0.00 | 0.00 | 86 | 1018.0 |
| 20260902045209 | 20 | 318 | 3.2 | 0.0 | 0.00 | 0.00 | 0.00 | 83 | 1018.0 |
| 20260902045135 | 20 | 318 | 3.2 | 0.0 | 0.00 | 0.00 | 0.00 | 83 | 1018.0 |
| 20260902045114 | 20 | 309 | 3.2 | 0.0 | 0.00 | 0.00 | 0.00 | 82 | 1018.0 |
| 20260902045039 | 20 | 309 | 3.2 | 3.2 | 0.00 | 0.00 | 0.00 | 82 | 1018.0 |
| 20260902045008 | 20 | 288 | 0.0 | 0.0 | 0.00 | 0.00 | 0.00 | 83 | 1018.0 |
| 20260902044936 | 20 | 288 | 1.6 | 0.0 | 0.00 | 0.00 | 0.00 | 83 | 1018.0 |
| 20260902044926 | 20 | 288 | 1.6 | 1.6 | 0.00 | 0.00 | 0.00 | 83 | 1018.0 |
| 20260902044855 | 20 | 288 | 0.0 | 0.0 | 0.00 | 0.00 | 0.00 | 83 | 1018.0 |
| 20260902044844 | 20 | 288 | 3.2 | 0.0 | 0.00 | 0.00 | 0.00 | 83 | 1018.0 |
| 20260902044824 | 20 | 300 | 3.2 | 0.0 | 0.00 | 0.00 | 0.00 | 84 | 1018.0 |
| 20260902044734 | 20 | 300 | 3.2 | 0.0 | 0.00 | 0.00 | 0.00 | 84 | 1018.0 |
| 20260902044703 | 20 | 300 | 3.2 | 0.0 | 0.00 | 0.00 | 0.00 | 84 | 1018.0 |
| 20260902044653 | 20 | 300 | 3.2 | 3.2 | 0.00 | 0.00 | 0.00 | 84 | 1018.0 |
| 20260902044621 | 20 | 288 | 6.4 | 0.0 | 0.00 | 0.00 | 0.00 | 84 | 1018.0 |
| 20260902044550 | 20 | 300 | 1.6 | 0.0 | 0.00 | 0.00 | 0.00 | 84 | 1018.0 |
| 20260902044540 | 20 | 300 | 1.6 | 1.6 | 0.00 | 0.00 | 0.00 | 84 | 1018.0 |
| 20260902044458 | 20 | 300 | 3.2 | 0.0 | 0.00 | 0.00 | 0.00 | 84 | 1018.0 |
| 20260902044437 | 20 | 282 | 3.2 | 0.0 | 0.00 | 0.00 | 0.00 | 84 | 1018.0 |
| 20260902044406 | 20 | 282 | 3.2 | 0.0 | 0.00 | 0.00 | 0.00 | 84 | 1018.0 |
| 20260902044345 | 20 | 276 | 3.2 | 0.0 | 0.00 | 0.00 | 0.00 | 84 | 1018.0 |
| 20260902044324 | 20 | 309 | 0.0 | 0.0 | 0.00 | 0.00 | 0.00 | 84 | 1018.0 |
| 20260902044239 | 20 | 309 | 0.0 | 0.0 | 0.00 | 0.00 | 0.00 | 84 | 1018.0 |
| 20260902044207 | 20 | 309 | 0.0 | 0.0 | 0.00 | 0.00 | 0.00 | 84 | 1018.0 |
| 20260902044136 | 20 | 309 | 0.0 | 0.0 | 0.00 | 0.00 | 0.00 | 84 | 1018.0 |
| 20260902044105 | 20 | 309 | 0.0 | 0.0 | 0.00 | 0.00 | 0.00 | 84 | 1018.0 |
| 20260902044054 | 20 | 306 | 0.0 | 0.0 | 0.00 | 0.00 | 0.00 | 84 | 1018.0 |
| 20260902043959 | 20 | 306 | 0.0 | 0.0 | 0.00 | 0.00 | 0.00 | 84 | 1018.0 |
| 20260902043938 | 20 | 306 | 3.2 | 0.0 | 0.00 | 0.00 | 0.00 | 84 | 1018.0 |
| 20260902043917 | 20 | 306 | 3.2 | 3.2 | 0.00 | 0.00 | 0.00 | 84 | 1018.0 |
| 20260902043845 | 20 | 306 | 0.0 | 0.0 | 0.00 | 0.00 | 0.00 | 84 | 1018.0 |
| 20260902043826 | 20 | 306 | 0.0 | 0.0 | 0.00 | 0.00 | 0.00 | 85 | 1018.0 |
| 20260902043753 | 20 | 306 | 0.0 | 0.0 | 0.00 | 0.00 | 0.00 | 85 | 1018.0 |
| 20260902043743 | 20 | 306 | 0.0 | 0.0 | 0.00 | 0.00 | 0.00 | 84 | 1018.0 |
| 20260902043712 | 20 | 306 | 0.0 | 0.0 | 0.00 | 0.00 | 0.00 | 84 | 1018.0 |
| 20260902043640 | 20 | 306 | 0.0 | 0.0 | 0.00 | 0.00 | 0.00 | 84 | 1018.0 |
| 20260902043630 | 20 | 306 | 3.2 | 0.0 | 0.00 | 0.00 | 0.00 | 84 | 1018.0 |
| 20260902043558 | 20 | 306 | 3.2 | 0.0 | 0.00 | 0.00 | 0.00 | 84 | 1018.0 |
| 20260902043527 | 20 | 305 | 3.2 | 0.0 | 0.00 | 0.00 | 0.00 | 85 | 1018.0 |
| 20260902043517 | 20 | 305 | 3.2 | 3.2 | 0.00 | 0.00 | 0.00 | 85 | 1018.0 |
| 20260902043442 | 20 | 294 | 3.2 | 0.0 | 0.00 | 0.00 | 0.00 | 85 | 1018.0 |
| 20260902043411 | 20 | 150 | 0.0 | 0.0 | 0.00 | 0.00 | 0.00 | 87 | 1018.0 |
| 20260902043339 | 20 | 150 | 0.0 | 0.0 | 0.00 | 0.00 | 0.00 | 87 | 1018.0 |
| 20260902043233 | 20 | 150 | 0.0 | 0.0 | 0.00 | 0.00 | 0.00 | 86 | 1018.0 |
| 20260902043202 | 20 | 150 | 3.2 | 0.0 | 0.00 | 0.00 | 0.00 | 86 | 1018.0 |
| 20260902043148 | 20 | 150 | 0.0 | 0.0 | 0.00 | 0.00 | 0.00 | 84 | 1018.0 |
| 20260902043113 | 20 | 150 | 0.0 | 0.0 | 0.00 | 0.00 | 0.00 | 84 | 1018.0 |
| 20260902043031 | 20 | 148 | 3.2 | 0.0 | 0.00 | 0.00 | 0.00 | 84 | 1018.0 |
| 20260902043000 | 20 | 148 | 1.6 | 0.0 | 0.00 | 0.00 | 0.00 | 84 | 1018.0 |
| 20260902042950 | 20 | 148 | 3.2 | 0.0 | 0.00 | 0.00 | 0.00 | 84 | 1018.0 |
| 20260902042918 | 20 | 148 | 3.2 | 0.0 | 0.00 | 0.00 | 0.00 | 84 | 1018.0 |
| 20260902042847 | 20 | 156 | 3.2 | 0.0 | 0.00 | 0.00 | 0.00 | 84 | 1018.0 |
| 20260902042837 | 21 | 264 | 3.2 | 0.0 | 0.00 | 0.00 | 0.00 | 83 | 1018.0 |
| 20260902042755 | 21 | 264 | 3.2 | 0.0 | 0.00 | 0.00 | 0.00 | 83 | 1018.0 |
| 20260902042723 | 21 | 264 | 3.2 | 0.0 | 0.00 | 0.00 | 0.00 | 83 | 1018.0 |
| 20260902042703 | 21 | 300 | 0.0 | 0.0 | 0.00 | 0.00 | 0.00 | 83 | 1018.0 |
| 20260902042631 | 21 | 300 | 0.0 | 0.0 | 0.00 | 0.00 | 0.00 | 83 | 1018.0 |
| 20260902042556 | 21 | 300 | 3.2 | 0.0 | 0.00 | 0.00 | 0.00 | 83 | 1018.0 |
| 20260902042546 | 21 | 289 | 3.2 | 0.0 | 0.00 | 0.00 | 0.00 | 83 | 1018.0 |
| 20260902042515 | 21 | 289 | 3.2 | 0.0 | 0.00 | 0.00 | 0.00 | 83 | 1018.0 |
| 20260902042504 | 21 | 289 | 3.2 | 3.2 | 0.00 | 0.00 | 0.00 | 83 | 1018.0 |
| 20260902042433 | 21 | 298 | 3.2 | 0.0 | 0.00 | 0.00 | 0.00 | 83 | 1018.0 |
| 20260902042402 | 21 | 299 | 4.8 | 0.0 | 0.00 | 0.00 | 0.00 | 83 | 1018.0 |
| 20260902042351 | 21 | 299 | 4.8 | 4.8 | 0.00 | 0.00 | 0.00 | 83 | 1018.0 |
| 20260902042330 | 21 | 299 | 6.4 | 0.0 | 0.00 | 0.00 | 0.00 | 83 | 1018.0 |
| 20260902042231 | 21 | 312 | 0.0 | 0.0 | 0.00 | 0.00 | 0.00 | 83 | 1018.0 |
| 20260902042200 | 21 | 312 | 0.0 | 0.0 | 0.00 | 0.00 | 0.00 | 83 | 1018.0 |
| 20260902042139 | 21 | 312 | 3.2 | 0.0 | 0.00 | 0.00 | 0.00 | 83 | 1018.0 |
| 20260902042108 | 21 | 312 | 3.2 | 0.0 | 0.00 | 0.00 | 0.00 | 83 | 1018.0 |
| 20260902042043 | 21 | 315 | 1.6 | 0.0 | 0.00 | 0.00 | 0.00 | 83 | 1018.0 |
| 20260902042029 | 21 | 300 | 0.0 | 0.0 | 0.00 | 0.00 | 0.00 | 83 | 1018.0 |
| 20260902041954 | 21 | 300 | 1.6 | 0.0 | 0.00 | 0.00 | 0.00 | 83 | 1018.0 |
| 20260902041923 | 21 | 300 | 3.2 | 0.0 | 0.00 | 0.00 | 0.00 | 83 | 1018.0 |
| 20260902041913 | 21 | 258 | 4.8 | 0.0 | 0.00 | 0.00 | 0.00 | 83 | 1018.0 |
| 20260902041841 | 21 | 258 | 4.8 | 0.0 | 0.00 | 0.00 | 0.00 | 83 | 1018.0 |
| 20260902041819 | 20 | 336 | 3.2 | 0.0 | 0.00 | 0.00 | 0.00 | 83 | 1018.0 |
| 20260902041725 | 20 | 336 | 3.2 | 0.0 | 0.00 | 0.00 | 0.00 | 83 | 1018.0 |
| 20260902041714 | 20 | 336 | 3.2 | 3.2 | 0.00 | 0.00 | 0.00 | 83 | 1018.0 |
| 20260902041643 | 20 | 336 | 4.8 | 0.0 | 0.00 | 0.00 | 0.00 | 83 | 1018.0 |
| 20260902041622 | 20 | 114 | 3.2 | 0.0 | 0.00 | 0.00 | 0.00 | 83 | 1018.0 |
| 20260902041551 | 20 | 102 | 0.0 | 0.0 | 0.00 | 0.00 | 0.00 | 83 | 1018.0 |
| 20260902041520 | 20 | 102 | 0.0 | 0.0 | 0.00 | 0.00 | 0.00 | 83 | 1018.0 |
| 20260902041459 | 20 | 102 | 3.2 | 0.0 | 0.00 | 0.00 | 0.00 | 83 | 1018.0 |
| 20260902041448 | 20 | 102 | 0.0 | 0.0 | 0.00 | 0.00 | 0.00 | 83 | 1018.0 |
| 20260902041438 | 20 | 104 | 3.2 | 0.0 | 0.00 | 0.00 | 0.00 | 84 | 1018.0 |
| 20260902041406 | 20 | 104 | 3.2 | 0.0 | 0.00 | 0.00 | 0.00 | 84 | 1018.0 |
| 20260902041356 | 20 | 114 | 0.0 | 0.0 | 0.00 | 0.00 | 0.00 | 84 | 1018.0 |
| 20260902041325 | 20 | 114 | 0.0 | 0.0 | 0.00 | 0.00 | 0.00 | 84 | 1018.0 |
| 20260902041236 | 20 | 114 | 0.0 | 0.0 | 0.00 | 0.00 | 0.00 | 84 | 1018.0 |
| 20260902041205 | 20 | 114 | 0.0 | 0.0 | 0.00 | 0.00 | 0.00 | 84 | 1018.0 |
| 20260902041133 | 20 | 114 | 0.0 | 0.0 | 0.00 | 0.00 | 0.00 | 84 | 1018.0 |
| 20260902041123 | 20 | 110 | 0.0 | 0.0 | 0.00 | 0.00 | 0.00 | 84 | 1018.0 |
| 20260902041059 | 20 | 110 | 3.2 | 0.0 | 0.00 | 0.00 | 0.00 | 84 | 1018.0 |
| 20260902041024 | 20 | 110 | 3.2 | 0.0 | 0.00 | 0.00 | 0.00 | 84 | 1018.0 |
| 20260902040949 | 20 | 282 | 3.2 | 0.0 | 0.00 | 0.00 | 0.00 | 84 | 1018.0 |
| 20260902040938 | 20 | 282 | 3.2 | 3.2 | 0.00 | 0.00 | 0.00 | 84 | 1018.0 |
| 20260902040907 | 20 | 300 | 1.6 | 0.0 | 0.00 | 0.00 | 0.00 | 84 | 1018.0 |
| 20260902040847 | 21 | 304 | 3.2 | 0.0 | 0.00 | 0.00 | 0.00 | 83 | 1018.0 |
| 20260902040816 | 21 | 304 | 3.2 | 0.0 | 0.00 | 0.00 | 0.00 | 83 | 1018.0 |
| 20260902040737 | 21 | 304 | 3.2 | 0.0 | 0.00 | 0.00 | 0.00 | 83 | 1018.0 |
| 20260902040726 | 21 | 304 | 3.2 | 3.2 | 0.00 | 0.00 | 0.00 | 83 | 1018.0 |
| 20260902040655 | 20 | 303 | 3.2 | 0.0 | 0.00 | 0.00 | 0.00 | 84 | 1018.0 |
| 20260902040624 | 20 | 306 | 0.0 | 0.0 | 0.00 | 0.00 | 0.00 | 84 | 1018.0 |
| 20260902040613 | 20 | 306 | 1.6 | 0.0 | 0.00 | 0.00 | 0.00 | 83 | 1018.0 |
| 20260902040542 | 20 | 306 | 1.6 | 0.0 | 0.00 | 0.00 | 0.00 | 83 | 1018.0 |
| 20260902040504 | 20 | 306 | 3.2 | 3.2 | 0.00 | 0.00 | 0.00 | 83 | 1018.0 |
| 20260902040453 | 20 | 306 | 3.2 | 0.0 | 0.00 | 0.00 | 0.00 | 83 | 1018.0 |
| 20260902040422 | 20 | 306 | 3.2 | 0.0 | 0.00 | 0.00 | 0.00 | 83 | 1018.0 |
| 20260902040401 | 20 | 336 | 3.2 | 0.0 | 0.00 | 0.00 | 0.00 | 83 | 1018.0 |
| 20260902040330 | 20 | 336 | 3.2 | 0.0 | 0.00 | 0.00 | 0.00 | 83 | 1018.0 |
| 20260902040241 | 20 | 336 | 3.2 | 0.0 | 0.00 | 0.00 | 0.00 | 83 | 1018.0 |
| 20260902040210 | 20 | 72 | 0.0 | 0.0 | 0.00 | 0.00 | 0.00 | 84 | 1018.0 |
| 20260902040132 | 20 | 72 | 0.0 | 0.0 | 0.00 | 0.00 | 0.00 | 84 | 1018.0 |
| 20260902040053 | 20 | 72 | 1.6 | 1.6 | 0.00 | 0.00 | 0.00 | 84 | 1018.0 |
| 20260902040025 | 20 | 72 | 1.6 | 0.0 | 0.00 | 0.00 | 0.00 | 84 | 1018.0 |
| 20260902040004 | 20 | 72 | 0.0 | 0.0 | 0.00 | 0.00 | 0.00 | 84 | 1018.0 |
| 20260902035926 | 20 | 72 | 0.0 | 0.0 | 0.00 | 0.00 | 0.00 | 84 | 1018.0 |
| 20260902035916 | 20 | 71 | 3.2 | 0.0 | 0.00 | 0.00 | 0.00 | 85 | 1018.0 |
| 20260902035837 | 20 | 126 | 3.2 | 0.0 | 0.00 | 0.00 | 0.00 | 85 | 1018.0 |
| 20260902035738 | 20 | 126 | 3.2 | 0.0 | 0.00 | 0.00 | 0.00 | 85 | 1018.0 |
| 20260902035653 | 20 | 130 | 0.0 | 0.0 | 0.00 | 0.00 | 0.00 | 85 | 1018.0 |
| 20260902035622 | 20 | 130 | 0.0 | 0.0 | 0.00 | 0.00 | 0.00 | 85 | 1018.0 |
| 20260902035533 | 20 | 130 | 3.2 | 0.0 | 0.00 | 0.00 | 0.00 | 84 | 1018.0 |
| 20260902035512 | 20 | 162 | 0.0 | 0.0 | 0.00 | 0.00 | 0.00 | 85 | 1018.0 |
| 20260902035441 | 20 | 162 | 0.0 | 0.0 | 0.00 | 0.00 | 0.00 | 85 | 1018.0 |
| 20260902035420 | 20 | 162 | 1.6 | 0.0 | 0.00 | 0.00 | 0.00 | 85 | 1018.0 |
| 20260902035409 | 20 | 258 | 1.6 | 0.0 | 0.00 | 0.00 | 0.00 | 84 | 1018.0 |
| 20260902035338 | 20 | 258 | 1.6 | 0.0 | 0.00 | 0.00 | 0.00 | 84 | 1018.0 |
| 20260902035328 | 20 | 258 | 1.6 | 1.6 | 0.00 | 0.00 | 0.00 | 84 | 1018.0 |
| 20260902035315 | 20 | 258 | 0.0 | 0.0 | 0.00 | 0.00 | 0.00 | 85 | 1018.0 |
| 20260902035221 | 20 | 258 | 0.0 | 0.0 | 0.00 | 0.00 | 0.00 | 85 | 1018.0 |
| 20260902035211 | 20 | 258 | 3.2 | 0.0 | 0.00 | 0.00 | 0.00 | 84 | 1018.0 |
| 20260902035140 | 20 | 258 | 3.2 | 0.0 | 0.00 | 0.00 | 0.00 | 84 | 1018.0 |
| 20260902035129 | 20 | 258 | 3.2 | 3.2 | 0.00 | 0.00 | 0.00 | 84 | 1018.0 |
| 20260902035109 | 20 | 132 | 3.2 | 0.0 | 0.00 | 0.00 | 0.00 | 85 | 1018.0 |
| 20260902035051 | 20 | 132 | 3.2 | 3.2 | 0.00 | 0.00 | 0.00 | 85 | 1018.0 |
| 20260902035041 | 20 | 132 | 1.6 | 0.0 | 0.00 | 0.00 | 0.00 | 85 | 1018.0 |
| 20260902035013 | 20 | 136 | 3.2 | 0.0 | 0.00 | 0.00 | 0.00 | 84 | 1018.0 |
| 20260902034941 | 20 | 136 | 3.2 | 0.0 | 0.00 | 0.00 | 0.00 | 84 | 1018.0 |
| 20260902034911 | 20 | 300 | 1.6 | 0.0 | 0.00 | 0.00 | 0.00 | 84 | 1018.0 |
| 20260902034835 | 20 | 300 | 1.6 | 0.0 | 0.00 | 0.00 | 0.00 | 84 | 1018.0 |
| 20260902034746 | 20 | 300 | 3.2 | 0.0 | 0.00 | 0.00 | 0.00 | 84 | 1018.0 |
| 20260902034715 | 20 | 300 | 1.6 | 0.0 | 0.00 | 0.00 | 0.00 | 84 | 1018.0 |
| 20260902034705 | 20 | 300 | 1.6 | 1.6 | 0.00 | 0.00 | 0.00 | 84 | 1018.0 |
| 20260902034633 | 20 | 300 | 1.6 | 0.0 | 0.00 | 0.00 | 0.00 | 84 | 1018.0 |
| 20260902034623 | 20 | 294 | 4.8 | 0.0 | 0.00 | 0.00 | 0.00 | 84 | 1018.0 |
| 20260902034548 | 20 | 294 | 4.8 | 0.0 | 0.00 | 0.00 | 0.00 | 84 | 1018.0 |
| 20260902034538 | 20 | 276 | 3.2 | 0.0 | 0.00 | 0.00 | 0.00 | 84 | 1018.0 |
| 20260902034506 | 20 | 276 | 3.2 | 0.0 | 0.00 | 0.00 | 0.00 | 84 | 1018.0 |
| 20260902034456 | 20 | 162 | 0.0 | 0.0 | 0.00 | 0.00 | 0.00 | 84 | 1018.0 |
| 20260902034421 | 20 | 162 | 0.0 | 0.0 | 0.00 | 0.00 | 0.00 | 84 | 1018.0 |
| 20260902034350 | 20 | 162 | 0.0 | 0.0 | 0.00 | 0.00 | 0.00 | 84 | 1018.0 |
| 20260902034322 | 20 | 294 | 3.2 | 0.0 | 0.00 | 0.00 | 0.00 | 84 | 1018.0 |
| 20260902034312 | 20 | 299 | 3.2 | 0.0 | 0.00 | 0.00 | 0.00 | 84 | 1018.0 |
| 20260902034230 | 20 | 299 | 3.2 | 0.0 | 0.00 | 0.00 | 0.00 | 84 | 1018.0 |
| 20260902034219 | 20 | 294 | 0.0 | 0.0 | 0.00 | 0.00 | 0.00 | 84 | 1018.0 |
| 20260902034148 | 20 | 294 | 0.0 | 0.0 | 0.00 | 0.00 | 0.00 | 84 | 1018.0 |
| 20260902034117 | 20 | 294 | 0.0 | 0.0 | 0.00 | 0.00 | 0.00 | 84 | 1018.0 |
| 20260902034049 | 20 | 294 | 3.2 | 0.0 | 0.00 | 0.00 | 0.00 | 84 | 1018.0 |
| 20260902034039 | 20 | 294 | 3.2 | 3.2 | 0.00 | 0.00 | 0.00 | 84 | 1018.0 |
| 20260902034007 | 20 | 144 | 1.6 | 0.0 | 0.00 | 0.00 | 0.00 | 84 | 1018.0 |
| 20260902033933 | 20 | 144 | 1.6 | 0.0 | 0.00 | 0.00 | 0.00 | 84 | 1018.0 |
| 20260902033922 | 20 | 144 | 0.0 | 0.0 | 0.00 | 0.00 | 0.00 | 85 | 1018.0 |
| 20260902033844 | 20 | 144 | 0.0 | 0.0 | 0.00 | 0.00 | 0.00 | 85 | 1018.0 |
| 20260902033823 | 20 | 138 | 3.2 | 0.0 | 0.00 | 0.00 | 0.00 | 85 | 1018.0 |
| 20260902033812 | 20 | 138 | 3.2 | 3.2 | 0.00 | 0.00 | 0.00 | 85 | 1018.0 |
| 20260902033731 | 20 | 138 | 3.2 | 0.0 | 0.00 | 0.00 | 0.00 | 85 | 1018.0 |
| 20260902033710 | 20 | 156 | 0.0 | 0.0 | 0.00 | 0.00 | 0.00 | 84 | 1018.0 |
| 20260902033638 | 20 | 156 | 0.0 | 0.0 | 0.00 | 0.00 | 0.00 | 84 | 1018.0 |
| 20260902033607 | 21 | 156 | 3.2 | 0.0 | 0.00 | 0.00 | 0.00 | 84 | 1018.0 |
| 20260902033536 | 21 | 156 | 3.2 | 0.0 | 0.00 | 0.00 | 0.00 | 84 | 1018.0 |
| 20260902033501 | 21 | 150 | 0.0 | 0.0 | 0.00 | 0.00 | 0.00 | 85 | 1018.0 |
| 20260902033430 | 21 | 150 | 0.0 | 0.0 | 0.00 | 0.00 | 0.00 | 85 | 1018.0 |
| 20260902033351 | 21 | 150 | 0.0 | 0.0 | 0.00 | 0.00 | 0.00 | 85 | 1018.0 |
| 20260902033331 | 21 | 150 | 3.2 | 0.0 | 0.00 | 0.00 | 0.00 | 84 | 1018.0 |
| 20260902033313 | 21 | 154 | 0.0 | 0.0 | 0.00 | 0.00 | 0.00 | 84 | 1018.0 |
| 20260902033242 | 21 | 154 | 0.0 | 0.0 | 0.00 | 0.00 | 0.00 | 84 | 1018.0 |
| 20260902033231 | 21 | 154 | 1.6 | 0.0 | 0.00 | 0.00 | 0.00 | 84 | 1018.0 |
| 20260902033200 | 21 | 154 | 1.6 | 0.0 | 0.00 | 0.00 | 0.00 | 84 | 1018.0 |
| 20260902033150 | 21 | 154 | 0.0 | 0.0 | 0.00 | 0.00 | 0.00 | 84 | 1018.0 |
| 20260902033115 | 21 | 154 | 0.0 | 0.0 | 0.00 | 0.00 | 0.00 | 84 | 1018.0 |
| 20260902033051 | 21 | 154 | 3.2 | 0.0 | 0.00 | 0.00 | 0.00 | 84 | 1018.0 |
| 20260902033040 | 21 | 154 | 3.2 | 3.2 | 0.00 | 0.00 | 0.00 | 84 | 1018.0 |
| 20260902033005 | 21 | 154 | 3.2 | 0.0 | 0.00 | 0.00 | 0.00 | 84 | 1018.0 |
| 20260902032927 | 21 | 142 | 3.2 | 0.0 | 0.00 | 0.00 | 0.00 | 84 | 1018.0 |
| 20260902032916 | 21 | 142 | 3.2 | 3.2 | 0.00 | 0.00 | 0.00 | 84 | 1018.0 |
| 20260902032842 | 21 | 312 | 3.2 | 0.0 | 0.00 | 0.00 | 0.00 | 84 | 101.8 |
| 20260902032831 | 21 | 312 | 1.6 | 0.0 | 0.00 | 0.00 | 0.00 | 83 | 1018.0 |
| 20260902032812 | 21 | 312 | 1.6 | 1.6 | 0.00 | 0.00 | 0.00 | 83 | 1018.0 |
| 20260902032722 | 21 | 312 | 0.0 | 0.0 | 0.00 | 0.00 | 0.00 | 84 | 1018.0 |
| 20260902032650 | 21 | 312 | 3.2 | 0.0 | 0.00 | 0.00 | 0.00 | 84 | 1018.0 |
| 20260902032640 | 21 | 312 | 3.2 | 3.2 | 0.00 | 0.00 | 0.00 | 84 | 1018.0 |
| 20260902032619 | 21 | 316 | 3.2 | 0.0 | 0.00 | 0.00 | 0.00 | 84 | 1018.0 |
| 20260902032537 | 21 | 316 | 3.2 | 0.0 | 0.00 | 0.00 | 0.00 | 84 | 1018.0 |
| 20260902032527 | 21 | 316 | 3.2 | 3.2 | 0.00 | 0.00 | 0.00 | 84 | 1018.0 |
| 20260902032455 | 21 | 316 | 3.2 | 0.0 | 0.00 | 0.00 | 0.00 | 84 | 1018.0 |
| 20260902032424 | 21 | 300 | 6.4 | 0.0 | 0.00 | 0.00 | 0.00 | 84 | 1018.0 |
| 20260902032414 | 21 | 35 | 3.2 | 0.0 | 0.00 | 0.00 | 0.00 | 84 | 1018.0 |
| 20260902032342 | 21 | 35 | 3.2 | 0.0 | 0.00 | 0.00 | 0.00 | 84 | 1018.0 |
| 20260902032312 | 21 | 126 | 3.2 | 0.0 | 0.00 | 0.00 | 0.00 | 84 | 1018.0 |
| 20260902032243 | 21 | 129 | 3.2 | 0.0 | 0.00 | 0.00 | 0.00 | 84 | 1018.0 |
| 20260902032212 | 21 | 129 | 3.2 | 0.0 | 0.00 | 0.00 | 0.00 | 84 | 1018.0 |
| 20260902032151 | 21 | 129 | 1.6 | 0.0 | 0.00 | 0.00 | 0.00 | 84 | 1018.0 |
| 20260902032141 | 21 | 129 | 1.6 | 1.6 | 0.00 | 0.00 | 0.00 | 84 | 1018.0 |
| 20260902032130 | 21 | 126 | 3.2 | 0.0 | 0.00 | 0.00 | 0.00 | 84 | 1018.0 |
| 20260902032055 | 21 | 126 | 3.2 | 0.0 | 0.00 | 0.00 | 0.00 | 84 | 1018.0 |
| 20260902032042 | 21 | 126 | 3.2 | 3.2 | 0.00 | 0.00 | 0.00 | 84 | 1018.0 |
| 20260902032020 | 21 | 131 | 0.0 | 0.0 | 0.00 | 0.00 | 0.00 | 84 | 1018.0 |
| 20260902031946 | 21 | 131 | 0.0 | 0.0 | 0.00 | 0.00 | 0.00 | 84 | 1018.0 |
| 20260902031914 | 21 | 131 | 0.0 | 0.0 | 0.00 | 0.00 | 0.00 | 84 | 1018.0 |
| 20260902031850 | 21 | 131 | 0.0 | 0.0 | 0.00 | 0.00 | 0.00 | 85 | 1018.0 |
| 20260902031809 | 21 | 131 | 0.0 | 0.0 | 0.00 | 0.00 | 0.00 | 85 | 1018.0 |
| 20260902031740 | 21 | 131 | 0.0 | 0.0 | 0.00 | 0.00 | 0.00 | 84 | 1018.0 |
| 20260902031702 | 21 | 131 | 0.0 | 0.0 | 0.00 | 0.00 | 0.00 | 84 | 1018.0 |
| 20260902031631 | 21 | 131 | 0.0 | 0.0 | 0.00 | 0.00 | 0.00 | 84 | 1018.0 |
| 20260902031553 | 21 | 131 | 0.0 | 0.0 | 0.00 | 0.00 | 0.00 | 84 | 1018.0 |
| 20260902031532 | 21 | 305 | 0.0 | 0.0 | 0.00 | 0.00 | 0.00 | 85 | 1018.0 |
| 20260902031500 | 21 | 305 | 0.0 | 0.0 | 0.00 | 0.00 | 0.00 | 85 | 1018.0 |
| 20260902031429 | 21 | 305 | 0.0 | 0.0 | 0.00 | 0.00 | 0.00 | 85 | 1018.0 |
| 20260902031358 | 21 | 305 | 0.0 | 0.0 | 0.00 | 0.00 | 0.00 | 84 | 1018.0 |
| 20260902031319 | 21 | 305 | 4.8 | 0.0 | 0.00 | 0.00 | 0.00 | 84 | 1018.0 |
| 20260902031238 | 21 | 342 | 0.0 | 0.0 | 0.00 | 0.00 | 0.00 | 84 | 1018.0 |
| 20260902031206 | 21 | 342 | 0.0 | 0.0 | 0.00 | 0.00 | 0.00 | 84 | 1018.0 |
| 20260902031135 | 21 | 342 | 0.0 | 0.0 | 0.00 | 0.00 | 0.00 | 84 | 1018.0 |
| 20260902031104 | 21 | 342 | 0.0 | 0.0 | 0.00 | 0.00 | 0.00 | 84 | 1018.0 |
| 20260902031036 | 21 | 342 | 3.2 | 0.0 | 0.00 | 0.00 | 0.00 | 84 | 1018.0 |
| 20260902031005 | 21 | 342 | 6.4 | 0.0 | 0.00 | 0.00 | 0.00 | 84 | 1018.0 |
| 20260902030926 | 21 | 294 | 4.8 | 0.0 | 0.00 | 0.00 | 0.00 | 84 | 1018.0 |
| 20260902030916 | 21 | 294 | 4.8 | 4.8 | 0.00 | 0.00 | 0.00 | 84 | 1018.0 |
| 20260902030844 | 21 | 310 | 3.2 | 0.0 | 0.00 | 0.00 | 0.00 | 84 | 1018.0 |
| 20260902030813 | 21 | 310 | 0.0 | 0.0 | 0.00 | 0.00 | 0.00 | 84 | 1018.0 |
| 20260902030731 | 21 | 310 | 3.2 | 0.0 | 0.00 | 0.00 | 0.00 | 84 | 1018.0 |
| 20260902030700 | 20 | 310 | 3.2 | 0.0 | 0.00 | 0.00 | 0.00 | 84 | 1018.0 |
| 20260902030639 | 20 | 318 | 6.4 | 0.0 | 0.00 | 0.00 | 0.00 | 84 | 1018.0 |
| 20260902030608 | 20 | 318 | 6.4 | 0.0 | 0.00 | 0.00 | 0.00 | 84 | 1018.0 |
| 20260902030557 | 20 | 294 | 0.0 | 0.0 | 0.00 | 0.00 | 0.00 | 84 | 1018.0 |
| 20260902030526 | 20 | 294 | 0.0 | 0.0 | 0.00 | 0.00 | 0.00 | 84 | 1018.0 |
| 20260902030455 | 20 | 294 | 0.0 | 0.0 | 0.00 | 0.00 | 0.00 | 84 | 1018.0 |
| 20260902030444 | 20 | 294 | 3.2 | 0.0 | 0.00 | 0.00 | 0.00 | 84 | 1018.0 |
| 20260902030413 | 20 | 294 | 3.2 | 0.0 | 0.00 | 0.00 | 0.00 | 84 | 1018.0 |
| 20260902030403 | 20 | 294 | 3.2 | 3.2 | 0.00 | 0.00 | 0.00 | 84 | 1018.0 |
| 20260902030331 | 20 | 324 | 6.4 | 0.0 | 0.00 | 0.00 | 0.00 | 84 | 1018.0 |
| 20260902030321 | 20 | 294 | 6.4 | 0.0 | 0.00 | 0.00 | 0.00 | 85 | 1018.0 |
| 20260902030301 | 20 | 318 | 3.2 | 0.0 | 0.00 | 0.00 | 0.00 | 85 | 1018.0 |
| 20260902030222 | 20 | 318 | 3.2 | 0.0 | 0.00 | 0.00 | 0.00 | 85 | 1018.0 |
| 20260902030150 | 20 | 312 | 3.2 | 0.0 | 0.00 | 0.00 | 0.00 | 85 | 1018.0 |
| 20260902030140 | 20 | 312 | 3.2 | 3.2 | 0.00 | 0.00 | 0.00 | 85 | 1018.0 |
| 20260902030112 | 20 | 306 | 3.2 | 0.0 | 0.00 | 0.00 | 0.00 | 85 | 1018.0 |
| 20260902030034 | 21 | 312 | 6.4 | 0.0 | 0.00 | 0.00 | 0.00 | 84 | 1018.0 |
| 20260902025945 | 21 | 288 | 8.0 | 0.0 | 0.00 | 0.00 | 0.00 | 84 | 1018.0 |
| 20260902025914 | 21 | 294 | 4.8 | 0.0 | 0.00 | 0.00 | 0.00 | 85 | 1018.0 |
| 20260902025903 | 21 | 294 | 4.8 | 4.8 | 0.00 | 0.00 | 0.00 | 85 | 1018.0 |
| 20260902025842 | 21 | 298 | 0.0 | 0.0 | 0.00 | 0.00 | 0.00 | 85 | 1018.0 |
| 20260902025759 | 21 | 298 | 0.0 | 0.0 | 0.00 | 0.00 | 0.00 | 85 | 1018.0 |
| 20260902025708 | 21 | 298 | 1.6 | 0.0 | 0.00 | 0.00 | 0.00 | 85 | 1018.0 |
| 20260902025658 | 21 | 316 | 6.4 | 0.0 | 0.00 | 0.00 | 0.00 | 84 | 1018.0 |
| 20260902025627 | 21 | 316 | 6.4 | 0.0 | 0.00 | 0.00 | 0.00 | 84 | 1018.0 |
| 20260902025616 | 21 | 316 | 6.4 | 6.4 | 0.00 | 0.00 | 0.00 | 84 | 1018.0 |
| 20260902025545 | 21 | 264 | 6.4 | 0.0 | 0.00 | 0.00 | 0.00 | 84 | 1018.0 |
| 20260902025514 | 21 | 305 | 3.2 | 0.0 | 0.00 | 0.00 | 0.00 | 84 | 1018.0 |
| 20260902025503 | 21 | 305 | 3.2 | 3.2 | 0.00 | 0.00 | 0.00 | 84 | 1018.0 |
| 20260902025432 | 21 | 305 | 3.2 | 0.0 | 0.00 | 0.00 | 0.00 | 84 | 1018.0 |
| 20260902025401 | 21 | 305 | 4.8 | 0.0 | 0.00 | 0.00 | 0.00 | 84 | 1018.0 |
| 20260902025350 | 21 | 305 | 4.8 | 4.8 | 0.00 | 0.00 | 0.00 | 84 | 1018.0 |
| 20260902025319 | 20 | 306 | 4.8 | 0.0 | 0.00 | 0.00 | 0.00 | 85 | 1018.0 |
| 20260902025308 | 20 | 316 | 3.2 | 0.0 | 0.00 | 0.00 | 0.00 | 85 | 1018.0 |
| 20260902025259 | 20 | 316 | 3.2 | 3.2 | 0.00 | 0.00 | 0.00 | 85 | 1018.0 |
| 20260902025209 | 20 | 316 | 0.0 | 0.0 | 0.00 | 0.00 | 0.00 | 85 | 1018.0 |
| 20260902025159 | 20 | 312 | 3.2 | 0.0 | 0.00 | 0.00 | 0.00 | 85 | 1018.0 |
| 20260902025127 | 20 | 312 | 3.2 | 0.0 | 0.00 | 0.00 | 0.00 | 85 | 1018.0 |
| 20260902025117 | 20 | 312 | 3.2 | 3.2 | 0.00 | 0.00 | 0.00 | 85 | 1018.0 |
| 20260902025046 | 20 | 312 | 4.8 | 0.0 | 0.00 | 0.00 | 0.00 | 85 | 1018.0 |
| 20260902025025 | 20 | 321 | 3.2 | 0.0 | 0.00 | 0.00 | 0.00 | 85 | 1018.0 |
| 20260902025000 | 20 | 322 | 9.7 | 0.0 | 0.00 | 0.00 | 0.00 | 85 | 1018.0 |
| 20260902024922 | 20 | 322 | 9.7 | 0.0 | 0.00 | 0.00 | 0.00 | 85 | 1018.0 |
| 20260902024851 | 20 | 300 | 8.0 | 0.0 | 0.00 | 0.00 | 0.00 | 85 | 1018.0 |
| 20260902024840 | 20 | 300 | 8.0 | 8.0 | 0.00 | 0.00 | 0.00 | 85 | 1018.0 |
| 20260902024816 | 20 | 318 | 6.4 | 0.0 | 0.00 | 0.00 | 0.00 | 85 | 1018.0 |
| 20260902024755 | 20 | 321 | 4.8 | 0.0 | 0.00 | 0.00 | 0.00 | 85 | 1018.0 |
| 20260902024703 | 20 | 318 | 9.7 | 0.0 | 0.00 | 0.00 | 0.00 | 85 | 1018.0 |
| 20260902024652 | 20 | 318 | 9.7 | 9.7 | 0.00 | 0.00 | 0.00 | 85 | 1018.0 |
| 20260902024621 | 20 | 299 | 3.2 | 0.0 | 0.00 | 0.00 | 0.00 | 85 | 1018.0 |
| 20260902024539 | 20 | 300 | 0.0 | 0.0 | 0.00 | 0.00 | 0.00 | 85 | 1018.0 |
| 20260902024455 | 20 | 300 | 4.8 | 0.0 | 0.00 | 0.00 | 0.00 | 86 | 1018.0 |
| 20260902024419 | 20 | 303 | 6.4 | 0.0 | 0.00 | 0.00 | 0.00 | 86 | 1018.0 |
| 20260902024409 | 20 | 277 | 3.2 | 0.0 | 0.00 | 0.00 | 0.00 | 86 | 1018.0 |
| 20260902024338 | 20 | 277 | 3.2 | 0.0 | 0.00 | 0.00 | 0.00 | 86 | 1018.0 |
| 20260902024327 | 20 | 277 | 3.2 | 3.2 | 0.00 | 0.00 | 0.00 | 86 | 1018.0 |
| 20260902024306 | 20 | 276 | 0.0 | 0.0 | 0.00 | 0.00 | 0.00 | 87 | 1018.0 |
| 20260902024225 | 20 | 276 | 1.6 | 0.0 | 0.00 | 0.00 | 0.00 | 87 | 1018.0 |
| 20260902024214 | 20 | 276 | 1.6 | 1.6 | 0.00 | 0.00 | 0.00 | 87 | 1018.0 |
| 20260902024143 | 20 | 276 | 4.8 | 0.0 | 0.00 | 0.00 | 0.00 | 89 | 1018.0 |
| 20260902024115 | 20 | 294 | 1.6 | 0.0 | 0.00 | 0.00 | 0.00 | 89 | 1018.0 |
| 20260902024101 | 20 | 294 | 0.0 | 0.0 | 0.00 | 0.00 | 0.00 | 88 | 1018.0 |
| 20260902024026 | 20 | 294 | 0.0 | 0.0 | 0.00 | 0.00 | 0.00 | 88 | 1018.0 |
| 20260902023951 | 20 | 294 | 0.0 | 0.0 | 0.00 | 0.00 | 0.00 | 88 | 1018.0 |
| 20260902023917 | 20 | 294 | 1.6 | 1.6 | 0.00 | 0.00 | 0.00 | 88 | 1018.0 |
| 20260902023906 | 20 | 294 | 0.0 | 0.0 | 0.00 | 0.00 | 0.00 | 88 | 1018.0 |
| 20260902023831 | 20 | 294 | 0.0 | 0.0 | 0.00 | 0.00 | 0.00 | 88 | 1018.0 |
| 20260902023807 | 20 | 294 | 3.2 | 0.0 | 0.00 | 0.00 | 0.00 | 88 | 1018.0 |
| 20260902023725 | 21 | 294 | 3.2 | 0.0 | 0.00 | 0.00 | 0.00 | 86 | 1018.0 |
| 20260902023715 | 21 | 294 | 3.2 | 3.2 | 0.00 | 0.00 | 0.00 | 86 | 1018.0 |
| 20260902023643 | 21 | 294 | 3.2 | 0.0 | 0.00 | 0.00 | 0.00 | 86 | 1018.0 |
| 20260902023612 | 21 | 299 | 0.0 | 0.0 | 0.00 | 0.00 | 0.00 | 86 | 1018.0 |
| 20260902023551 | 21 | 300 | 0.0 | 0.0 | 0.00 | 0.00 | 0.00 | 86 | 1018.0 |
| 20260902023520 | 21 | 300 | 0.0 | 0.0 | 0.00 | 0.00 | 0.00 | 86 | 1018.0 |
| 20260902023449 | 21 | 300 | 0.0 | 0.0 | 0.00 | 0.00 | 0.00 | 86 | 1018.0 |
| 20260902023417 | 21 | 300 | 0.0 | 0.0 | 0.00 | 0.00 | 0.00 | 86 | 1018.0 |
| 20260902023346 | 21 | 300 | 0.0 | 0.0 | 0.00 | 0.00 | 0.00 | 86 | 1018.0 |
| 20260902023315 | 21 | 300 | 0.0 | 0.0 | 0.00 | 0.00 | 0.00 | 86 | 1018.0 |
| 20260902023226 | 21 | 300 | 3.2 | 0.0 | 0.00 | 0.00 | 0.00 | 86 | 1018.0 |
| 20260902023216 | 21 | 300 | 3.2 | 3.2 | 0.00 | 0.00 | 0.00 | 86 | 1018.0 |
| 20260902023205 | 20 | 306 | 6.4 | 0.0 | 0.00 | 0.00 | 0.00 | 85 | 1018.0 |
| 20260902023134 | 20 | 306 | 6.4 | 0.0 | 0.00 | 0.00 | 0.00 | 85 | 1018.0 |
| 20260902023056 | 20 | 306 | 6.4 | 0.0 | 0.00 | 0.00 | 0.00 | 85 | 1018.0 |
| 20260902023021 | 20 | 294 | 4.8 | 0.0 | 0.00 | 0.00 | 0.00 | 85 | 1018.0 |
| 20260902022942 | 20 | 304 | 8.0 | 0.0 | 0.00 | 0.00 | 0.00 | 85 | 1018.0 |
| 20260902022911 | 20 | 258 | 0.0 | 0.0 | 0.00 | 0.00 | 0.00 | 85 | 1018.0 |
| 20260902022850 | 20 | 258 | 3.2 | 0.0 | 0.00 | 0.00 | 0.00 | 87 | 1018.0 |
| 20260902022829 | 20 | 258 | 3.2 | 3.2 | 0.00 | 0.00 | 0.00 | 87 | 1018.0 |
| 20260902022805 | 20 | 306 | 4.8 | 0.0 | 0.00 | 0.00 | 0.00 | 87 | 1018.0 |
| 20260902022753 | 20 | 114 | 0.0 | 0.0 | 0.00 | 0.00 | 0.00 | 87 | 1018.0 |
| 20260902022702 | 20 | 114 | 0.0 | 0.0 | 0.00 | 0.00 | 0.00 | 87 | 1018.0 |
| 20260902022631 | 20 | 114 | 0.0 | 0.0 | 0.00 | 0.00 | 0.00 | 87 | 1018.0 |
| 20260902022621 | 20 | 96 | 3.2 | 0.0 | 0.00 | 0.00 | 0.00 | 87 | 1018.0 |
| 20260902022549 | 20 | 96 | 3.2 | 0.0 | 0.00 | 0.00 | 0.00 | 87 | 1018.0 |
| 20260902022539 | 20 | 96 | 3.2 | 3.2 | 0.00 | 0.00 | 0.00 | 87 | 1018.0 |
| 20260902022507 | 20 | 87 | 1.6 | 0.0 | 0.00 | 0.00 | 0.00 | 87 | 1018.0 |
| 20260902022436 | 20 | 87 | 0.0 | 0.0 | 0.00 | 0.00 | 0.00 | 87 | 1018.0 |
| 20260902022426 | 20 | 87 | 3.2 | 0.0 | 0.00 | 0.00 | 0.00 | 87 | 1018.0 |
| 20260902022354 | 20 | 87 | 3.2 | 0.0 | 0.00 | 0.00 | 0.00 | 87 | 1018.0 |
| 20260902022333 | 20 | 87 | 0.0 | 0.0 | 0.00 | 0.00 | 0.00 | 88 | 1018.0 |
| 20260902022305 | 20 | 90 | 0.0 | 0.0 | 0.00 | 0.00 | 0.00 | 88 | 1018.0 |
| 20260902022253 | 20 | 89 | 0.0 | 0.0 | 0.00 | 0.00 | 0.00 | 89 | 1018.0 |
| 20260902022203 | 20 | 89 | 0.0 | 0.0 | 0.00 | 0.00 | 0.00 | 89 | 1018.0 |
| 20260902022132 | 20 | 90 | 1.6 | 0.0 | 0.00 | 0.00 | 0.00 | 89 | 1018.0 |
| 20260902022111 | 20 | 90 | 0.0 | 0.0 | 0.00 | 0.00 | 0.00 | 90 | 1018.0 |
| 20260902022039 | 20 | 90 | 0.0 | 0.0 | 0.00 | 0.00 | 0.00 | 90 | 1018.0 |
| 20260902022008 | 20 | 89 | 3.2 | 0.0 | 0.00 | 0.00 | 0.00 | 89 | 1018.0 |
| 20260902021958 | 20 | 87 | 3.2 | 0.0 | 0.00 | 0.00 | 0.00 | 89 | 1018.0 |
| 20260902021855 | 20 | 87 | 3.2 | 0.0 | 0.00 | 0.00 | 0.00 | 88 | 1018.0 |
| 20260902021820 | 20 | 84 | 3.2 | 0.0 | 0.00 | 0.00 | 0.00 | 88 | 1018.0 |
| 20260902021810 | 20 | 48 | 3.2 | 0.0 | 0.00 | 0.00 | 0.00 | 88 | 1018.0 |
| 20260902021747 | 20 | 114 | 1.6 | 0.0 | 0.00 | 0.00 | 0.00 | 88 | 1018.0 |
| 20260902021657 | 20 | 114 | 1.6 | 0.0 | 0.00 | 0.00 | 0.00 | 88 | 1018.0 |
| 20260902021632 | 20 | 114 | 0.0 | 0.0 | 0.00 | 0.00 | 0.00 | 88 | 1018.0 |
| 20260902021558 | 20 | 114 | 0.0 | 0.0 | 0.00 | 0.00 | 0.00 | 88 | 1018.0 |
| 20260902021526 | 20 | 114 | 0.0 | 0.0 | 0.00 | 0.00 | 0.00 | 88 | 1018.0 |
| 20260902021452 | 20 | 114 | 0.0 | 0.0 | 0.00 | 0.00 | 0.00 | 88 | 1018.0 |
| 20260902021420 | 20 | 114 | 0.0 | 0.0 | 0.00 | 0.00 | 0.00 | 88 | 1018.0 |
| 20260902021349 | 20 | 114 | 0.0 | 0.0 | 0.00 | 0.00 | 0.00 | 88 | 1018.0 |
| 20260902021257 | 20 | 114 | 0.0 | 0.0 | 0.00 | 0.00 | 0.00 | 88 | 1018.0 |
| 20260902021218 | 20 | 114 | 0.0 | 0.0 | 0.00 | 0.00 | 0.00 | 88 | 1018.0 |
| 20260902021147 | 21 | 114 | 0.0 | 0.0 | 0.00 | 0.00 | 0.00 | 88 | 1018.0 |
| 20260902021116 | 21 | 114 | 3.2 | 0.0 | 0.00 | 0.00 | 0.00 | 88 | 1018.0 |
| 20260902021037 | 21 | 114 | 3.2 | 0.0 | 0.00 | 0.00 | 0.00 | 88 | 1018.0 |
| 20260902021006 | 21 | 114 | 3.2 | 0.0 | 0.00 | 0.00 | 0.00 | 88 | 1018.0 |
| 20260902020935 | 21 | 114 | 3.2 | 0.0 | 0.00 | 0.00 | 0.00 | 88 | 1018.0 |
| 20260902020924 | 21 | 114 | 3.2 | 0.0 | 0.00 | 0.00 | 0.00 | 87 | 1018.0 |
| 20260902020843 | 21 | 114 | 3.2 | 0.0 | 0.00 | 0.00 | 0.00 | 87 | 1018.0 |
| 20260902020822 | 21 | 114 | 0.0 | 0.0 | 0.00 | 0.00 | 0.00 | 86 | 1018.0 |
| 20260902020747 | 21 | 114 | 0.0 | 0.0 | 0.00 | 0.00 | 0.00 | 86 | 1018.0 |
| 20260902020716 | 21 | 114 | 0.0 | 0.0 | 0.00 | 0.00 | 0.00 | 86 | 1018.0 |
| 20260902020644 | 21 | 120 | 0.0 | 0.0 | 0.00 | 0.00 | 0.00 | 86 | 1018.0 |
| 20260902020613 | 21 | 120 | 0.0 | 0.0 | 0.00 | 0.00 | 0.00 | 86 | 1018.0 |
| 20260902020542 | 21 | 120 | 0.0 | 0.0 | 0.00 | 0.00 | 0.00 | 86 | 1018.0 |
| 20260902020510 | 21 | 120 | 0.0 | 0.0 | 0.00 | 0.00 | 0.00 | 86 | 1018.0 |
| 20260902020439 | 21 | 120 | 0.0 | 0.0 | 0.00 | 0.00 | 0.00 | 86 | 1018.0 |
| 20260902020425 | 21 | 118 | 0.0 | 0.0 | 0.00 | 0.00 | 0.00 | 86 | 1018.0 |
| 20260902020354 | 21 | 118 | 0.0 | 0.0 | 0.00 | 0.00 | 0.00 | 86 | 1018.0 |
| 20260902020343 | 21 | 118 | 3.2 | 0.0 | 0.00 | 0.00 | 0.00 | 85 | 1018.0 |
| 20260902020312 | 21 | 118 | 3.2 | 0.0 | 0.00 | 0.00 | 0.00 | 85 | 1018.0 |
| 20260902020247 | 21 | 118 | 1.6 | 0.0 | 0.00 | 0.00 | 0.00 | 85 | 1018.0 |
| 20260902020216 | 21 | 118 | 1.6 | 1.6 | 0.00 | 0.00 | 0.00 | 85 | 1018.0 |
| 20260902020155 | 21 | 120 | 3.2 | 0.0 | 0.00 | 0.00 | 0.00 | 85 | 1018.0 |
| 20260902020124 | 21 | 104 | 1.6 | 0.0 | 0.00 | 0.00 | 0.00 | 86 | 1018.0 |
| 20260902020053 | 21 | 104 | 1.6 | 0.0 | 0.00 | 0.00 | 0.00 | 86 | 1018.0 |
| 20260902020021 | 21 | 104 | 1.6 | 0.0 | 0.00 | 0.00 | 0.00 | 86 | 1018.0 |
| 20260902020008 | 21 | 104 | 3.2 | 0.0 | 0.00 | 0.00 | 0.00 | 86 | 1018.0 |
| 20260902015929 | 21 | 102 | 0.0 | 0.0 | 0.00 | 0.00 | 0.00 | 86 | 1018.0 |
| 20260902015901 | 21 | 102 | 1.6 | 0.0 | 0.00 | 0.00 | 0.00 | 87 | 1018.0 |
| 20260902015851 | 21 | 102 | 1.6 | 1.6 | 0.00 | 0.00 | 0.00 | 87 | 1018.0 |
| 20260902015830 | 21 | 91 | 0.0 | 0.0 | 0.00 | 0.00 | 0.00 | 87 | 1018.0 |
| 20260902015752 | 21 | 91 | 0.0 | 0.0 | 0.00 | 0.00 | 0.00 | 87 | 1018.0 |
| 20260902015703 | 21 | 91 | 3.2 | 0.0 | 0.00 | 0.00 | 0.00 | 87 | 1018.0 |
| 20260902015653 | 21 | 91 | 3.2 | 3.2 | 0.00 | 0.00 | 0.00 | 87 | 1018.0 |
| 20260902015614 | 21 | 91 | 3.2 | 0.0 | 0.00 | 0.00 | 0.00 | 87 | 1018.0 |
| 20260902015604 | 21 | 91 | 3.2 | 3.2 | 0.00 | 0.00 | 0.00 | 87 | 1018.0 |
| 20260902015533 | 21 | 91 | 0.0 | 0.0 | 0.00 | 0.00 | 0.00 | 87 | 1018.0 |
| 20260902015512 | 21 | 91 | 0.0 | 0.0 | 0.00 | 0.00 | 0.00 | 88 | 1018.0 |
| 20260902015440 | 21 | 91 | 0.0 | 0.0 | 0.00 | 0.00 | 0.00 | 88 | 1018.0 |
| 20260902015409 | 21 | 91 | 0.0 | 0.0 | 0.00 | 0.00 | 0.00 | 88 | 1018.0 |
| 20260902015338 | 21 | 91 | 1.6 | 0.0 | 0.00 | 0.00 | 0.00 | 88 | 1018.0 |
| 20260902015327 | 21 | 91 | 1.6 | 1.6 | 0.00 | 0.00 | 0.00 | 88 | 1018.0 |
| 20260902015256 | 21 | 91 | 1.6 | 0.0 | 0.00 | 0.00 | 0.00 | 88 | 1018.0 |
| 20260902015247 | 21 | 92 | 0.0 | 0.0 | 0.00 | 0.00 | 0.00 | 88 | 1018.0 |
| 20260902015157 | 21 | 92 | 0.0 | 0.0 | 0.00 | 0.00 | 0.00 | 88 | 1018.0 |
| 20260902015122 | 21 | 92 | 0.0 | 0.0 | 0.00 | 0.00 | 0.00 | 88 | 1018.0 |
| 20260902015051 | 21 | 92 | 0.0 | 0.0 | 0.00 | 0.00 | 0.00 | 88 | 1018.0 |
| 20260902015019 | 21 | 92 | 0.0 | 0.0 | 0.00 | 0.00 | 0.00 | 88 | 1018.0 |
| 20260902014945 | 21 | 92 | 0.0 | 0.0 | 0.00 | 0.00 | 0.00 | 88 | 1018.0 |
| 20260902014910 | 21 | 92 | 0.0 | 0.0 | 0.00 | 0.00 | 0.00 | 88 | 1018.0 |
| 20260902014839 | 21 | 92 | 0.0 | 0.0 | 0.00 | 0.00 | 0.00 | 88 | 1018.0 |
| 20260902014814 | 21 | 92 | 0.0 | 0.0 | 0.00 | 0.00 | 0.00 | 89 | 1018.0 |
| 20260902014715 | 21 | 92 | 0.0 | 0.0 | 0.00 | 0.00 | 0.00 | 89 | 1018.0 |
| 20260902014644 | 21 | 92 | 0.0 | 0.0 | 0.00 | 0.00 | 0.00 | 89 | 1018.0 |
| 20260902014623 | 21 | 92 | 0.0 | 0.0 | 0.00 | 0.00 | 0.00 | 88 | 1018.0 |
| 20260902014548 | 21 | 92 | 0.0 | 0.0 | 0.00 | 0.00 | 0.00 | 88 | 1018.0 |
| 20260902014517 | 21 | 92 | 0.0 | 0.0 | 0.00 | 0.00 | 0.00 | 88 | 1018.0 |
| 20260902014445 | 21 | 92 | 0.0 | 0.0 | 0.00 | 0.00 | 0.00 | 88 | 1018.0 |
| 20260902014435 | 21 | 92 | 0.0 | 0.0 | 0.00 | 0.00 | 0.00 | 87 | 1018.0 |
| 20260902014404 | 21 | 92 | 0.0 | 0.0 | 0.00 | 0.00 | 0.00 | 87 | 1018.0 |
| 20260902014353 | 21 | 92 | 3.2 | 0.0 | 0.00 | 0.00 | 0.00 | 87 | 1018.0 |
| 20260902014322 | 21 | 92 | 3.2 | 0.0 | 0.00 | 0.00 | 0.00 | 87 | 1018.0 |
| 20260902014251 | 21 | 92 | 0.0 | 0.0 | 0.00 | 0.00 | 0.00 | 87 | 1018.0 |
| 20260902014212 | 21 | 91 | 3.2 | 0.0 | 0.00 | 0.00 | 0.00 | 85 | 1018.0 |
| 20260902014151 | 21 | 84 | 0.0 | 0.0 | 0.00 | 0.00 | 0.00 | 85 | 1018.0 |
| 20260902014117 | 21 | 84 | 0.0 | 0.0 | 0.00 | 0.00 | 0.00 | 85 | 1018.0 |
| 20260902014045 | 21 | 84 | 3.2 | 0.0 | 0.00 | 0.00 | 0.00 | 85 | 1018.0 |
| 20260902014014 | 21 | 84 | 3.2 | 0.0 | 0.00 | 0.00 | 0.00 | 84 | 1018.0 |
| 20260902014000 | 21 | 84 | 0.0 | 0.0 | 0.00 | 0.00 | 0.00 | 84 | 1018.0 |
| 20260902013922 | 21 | 84 | 0.0 | 0.0 | 0.00 | 0.00 | 0.00 | 84 | 1018.0 |
| 20260902013843 | 21 | 84 | 0.0 | 0.0 | 0.00 | 0.00 | 0.00 | 84 | 1018.0 |
| 20260902013833 | 21 | 84 | 1.6 | 0.0 | 0.00 | 0.00 | 0.00 | 84 | 1018.0 |
| 20260902013809 | 21 | 85 | 1.6 | 0.0 | 0.00 | 0.00 | 0.00 | 84 | 1018.0 |
| 20260902013737 | 21 | 96 | 0.0 | 0.0 | 0.00 | 0.00 | 0.00 | 84 | 1018.0 |
| 20260902013656 | 21 | 96 | 0.0 | 0.0 | 0.00 | 0.00 | 0.00 | 84 | 1018.0 |
| 20260902013624 | 21 | 96 | 0.0 | 0.0 | 0.00 | 0.00 | 0.00 | 84 | 1018.0 |
| 20260902013553 | 21 | 96 | 0.0 | 0.0 | 0.00 | 0.00 | 0.00 | 84 | 1018.0 |
| 20260902013522 | 21 | 96 | 0.0 | 0.0 | 0.00 | 0.00 | 0.00 | 84 | 1018.0 |
| 20260902013443 | 21 | 96 | 1.6 | 0.0 | 0.00 | 0.00 | 0.00 | 84 | 1018.0 |
| 20260902013422 | 21 | 96 | 3.2 | 0.0 | 0.00 | 0.00 | 0.00 | 84 | 1018.0 |
| 20260902013401 | 21 | 96 | 0.0 | 0.0 | 0.00 | 0.00 | 0.00 | 84 | 1018.0 |
| 20260902013330 | 21 | 96 | 0.0 | 0.0 | 0.00 | 0.00 | 0.00 | 84 | 1018.0 |
| 20260902013259 | 21 | 96 | 3.2 | 0.0 | 0.00 | 0.00 | 0.00 | 84 | 1018.0 |
| 20260902013237 | 21 | 96 | 0.0 | 0.0 | 0.00 | 0.00 | 0.00 | 84 | 1018.0 |
| 20260902013203 | 21 | 103 | 1.6 | 0.0 | 0.00 | 0.00 | 0.00 | 84 | 1018.0 |
| 20260902013132 | 21 | 103 | 1.6 | 0.0 | 0.00 | 0.00 | 0.00 | 84 | 1018.0 |
| 20260902013101 | 21 | 105 | 3.2 | 0.0 | 0.00 | 0.00 | 0.00 | 84 | 1018.0 |
| 20260902013050 | 21 | 105 | 3.2 | 3.2 | 0.00 | 0.00 | 0.00 | 84 | 1018.0 |
| 20260902013019 | 21 | 105 | 0.0 | 0.0 | 0.00 | 0.00 | 0.00 | 84 | 1018.0 |
| 20260902013008 | 21 | 84 | 3.2 | 0.0 | 0.00 | 0.00 | 0.00 | 84 | 1018.0 |
| 20260902012930 | 21 | 84 | 3.2 | 0.0 | 0.00 | 0.00 | 0.00 | 84 | 1018.0 |
| 20260902012902 | 21 | 342 | 0.0 | 0.0 | 0.00 | 0.00 | 0.00 | 84 | 1018.0 |
| 20260902012827 | 21 | 342 | 0.0 | 0.0 | 0.00 | 0.00 | 0.00 | 84 | 1018.0 |
| 20260902012814 | 21 | 306 | 3.2 | 0.0 | 0.00 | 0.00 | 0.00 | 84 | 1018.0 |
| 20260902012737 | 21 | 306 | 3.2 | 0.0 | 0.00 | 0.00 | 0.00 | 84 | 1018.0 |
| 20260902012647 | 21 | 306 | 3.2 | 0.0 | 0.00 | 0.00 | 0.00 | 84 | 1018.0 |
| 20260902012615 | 21 | 311 | 0.0 | 0.0 | 0.00 | 0.00 | 0.00 | 84 | 1018.0 |
| 20260902012540 | 21 | 294 | 4.8 | 0.0 | 0.00 | 0.00 | 0.00 | 84 | 1018.0 |
| 20260902012506 | 21 | 299 | 3.2 | 0.0 | 0.00 | 0.00 | 0.00 | 84 | 1018.0 |
| 20260902012434 | 21 | 299 | 3.2 | 0.0 | 0.00 | 0.00 | 0.00 | 84 | 1018.0 |
| 20260902012410 | 21 | 306 | 3.2 | 0.0 | 0.00 | 0.00 | 0.00 | 84 | 1018.0 |
| 20260902012339 | 21 | 306 | 3.2 | 0.0 | 0.00 | 0.00 | 0.00 | 84 | 1018.0 |
| 20260902012328 | 21 | 306 | 3.2 | 3.2 | 0.00 | 0.00 | 0.00 | 84 | 1018.0 |
| 20260902012318 | 21 | 306 | 0.0 | 0.0 | 0.00 | 0.00 | 0.00 | 84 | 1018.0 |
| 20260902012237 | 21 | 306 | 0.0 | 0.0 | 0.00 | 0.00 | 0.00 | 84 | 1018.0 |
| 20260902012147 | 21 | 300 | 3.2 | 0.0 | 0.00 | 0.00 | 0.00 | 84 | 1018.0 |
| 20260902012116 | 21 | 300 | 3.2 | 0.0 | 0.00 | 0.00 | 0.00 | 84 | 1018.0 |
| 20260902012045 | 21 | 300 | 3.2 | 0.0 | 0.00 | 0.00 | 0.00 | 84 | 1018.0 |
| 20260902012013 | 21 | 300 | 3.2 | 0.0 | 0.00 | 0.00 | 0.00 | 84 | 1018.0 |
| 20260902012003 | 21 | 300 | 3.2 | 3.2 | 0.00 | 0.00 | 0.00 | 84 | 1018.0 |
| 20260902011931 | 21 | 300 | 3.2 | 0.0 | 0.00 | 0.00 | 0.00 | 84 | 1018.0 |
| 20260902011846 | 21 | 294 | 0.0 | 0.0 | 0.00 | 0.00 | 0.00 | 84 | 1018.0 |
| 20260902011825 | 21 | 318 | 3.2 | 0.0 | 0.00 | 0.00 | 0.00 | 84 | 1018.0 |
| 20260902011754 | 21 | 318 | 3.2 | 0.0 | 0.00 | 0.00 | 0.00 | 84 | 1018.0 |
| 20260902011734 | 21 | 294 | 0.0 | 0.0 | 0.00 | 0.00 | 0.00 | 85 | 1018.0 |
| 20260902011644 | 21 | 294 | 0.0 | 0.0 | 0.00 | 0.00 | 0.00 | 85 | 1018.0 |
| 20260902011634 | 21 | 294 | 3.2 | 0.0 | 0.00 | 0.00 | 0.00 | 85 | 1018.0 |
| 20260902011600 | 21 | 294 | 3.2 | 0.0 | 0.00 | 0.00 | 0.00 | 85 | 1018.0 |
| 20260902011549 | 21 | 290 | 0.0 | 0.0 | 0.00 | 0.00 | 0.00 | 85 | 1018.0 |
| 20260902011517 | 21 | 290 | 0.0 | 0.0 | 0.00 | 0.00 | 0.00 | 85 | 1018.0 |
| 20260902011446 | 21 | 294 | 3.2 | 0.0 | 0.00 | 0.00 | 0.00 | 85 | 1018.0 |
| 20260902011436 | 21 | 294 | 0.0 | 0.0 | 0.00 | 0.00 | 0.00 | 85 | 1018.0 |
| 20260902011404 | 21 | 294 | 0.0 | 0.0 | 0.00 | 0.00 | 0.00 | 85 | 1018.0 |
| 20260902011326 | 21 | 294 | 0.0 | 0.0 | 0.00 | 0.00 | 0.00 | 85 | 1018.0 |
| 20260902011305 | 21 | 294 | 1.6 | 0.0 | 0.00 | 0.00 | 0.00 | 85 | 1018.0 |
| 20260902011232 | 21 | 294 | 1.6 | 0.0 | 0.00 | 0.00 | 0.00 | 85 | 1018.0 |
| 20260902011203 | 21 | 294 | 1.6 | 1.6 | 0.00 | 0.00 | 0.00 | 85 | 1018.0 |
| 20260902011152 | 21 | 294 | 3.2 | 0.0 | 0.00 | 0.00 | 0.00 | 85 | 1018.0 |
| 20260902011114 | 21 | 294 | 3.2 | 0.0 | 0.00 | 0.00 | 0.00 | 85 | 1018.0 |
| 20260902011043 | 21 | 294 | 3.2 | 0.0 | 0.00 | 0.00 | 0.00 | 85 | 1018.0 |
| 20260902011032 | 21 | 294 | 1.6 | 0.0 | 0.00 | 0.00 | 0.00 | 85 | 1018.0 |
| 20260902011001 | 21 | 294 | 1.6 | 0.0 | 0.00 | 0.00 | 0.00 | 85 | 1018.0 |
| 20260902010950 | 21 | 294 | 1.6 | 1.6 | 0.00 | 0.00 | 0.00 | 85 | 1018.0 |
| 20260902010940 | 21 | 294 | 3.2 | 0.0 | 0.00 | 0.00 | 0.00 | 85 | 1018.0 |
| 20260902010855 | 21 | 284 | 8.0 | 0.0 | 0.00 | 0.00 | 0.00 | 85 | 1018.0 |
| 20260902010841 | 21 | 284 | 8.0 | 8.0 | 0.00 | 0.00 | 0.00 | 85 | 1018.0 |
| 20260902010810 | 20 | 298 | 3.2 | 0.0 | 0.00 | 0.00 | 0.00 | 86 | 1018.0 |
| 20260902010755 | 20 | 282 | 8.0 | 0.0 | 0.00 | 0.00 | 0.00 | 86 | 1018.0 |
| 20260902010732 | 20 | 294 | 3.2 | 0.0 | 0.00 | 0.00 | 0.00 | 86 | 1018.0 |
| 20260902010642 | 20 | 294 | 3.2 | 0.0 | 0.00 | 0.00 | 0.00 | 86 | 1018.0 |
| 20260902010611 | 20 | 294 | 9.7 | 0.0 | 0.00 | 0.00 | 0.00 | 88 | 1018.0 |
| 20260902010540 | 20 | 324 | 1.6 | 0.0 | 0.00 | 0.00 | 0.00 | 88 | 1018.0 |
| 20260902010529 | 20 | 324 | 1.6 | 1.6 | 0.00 | 0.00 | 0.00 | 88 | 1018.0 |
| 20260902010508 | 20 | 54 | 3.2 | 0.0 | 0.00 | 0.00 | 0.00 | 91 | 1018.0 |
| 20260902010437 | 20 | 54 | 3.2 | 0.0 | 0.00 | 0.00 | 0.00 | 91 | 1018.0 |
| 20260902010406 | 20 | 54 | 3.2 | 0.0 | 0.00 | 0.00 | 0.00 | 91 | 1018.0 |
| 20260902010335 | 20 | 54 | 0.0 | 0.0 | 0.00 | 0.00 | 0.00 | 91 | 1018.0 |
| 20260902010303 | 20 | 54 | 0.0 | 0.0 | 0.00 | 0.00 | 0.00 | 90 | 1018.0 |
| 20260902010230 | 20 | 54 | 0.0 | 0.0 | 0.00 | 0.00 | 0.00 | 90 | 1018.0 |
| 20260902010140 | 20 | 54 | 0.0 | 0.0 | 0.00 | 0.00 | 0.00 | 90 | 1018.0 |
| 20260902010108 | 20 | 54 | 0.0 | 0.0 | 0.00 | 0.00 | 0.00 | 90 | 1018.0 |
| 20260902010047 | 21 | 54 | 1.6 | 0.0 | 0.00 | 0.00 | 0.00 | 90 | 1018.0 |
| 20260902010027 | 21 | 54 | 0.0 | 0.0 | 0.00 | 0.00 | 0.00 | 90 | 1018.0 |
| 20260902005955 | 21 | 54 | 0.0 | 0.0 | 0.00 | 0.00 | 0.00 | 90 | 1018.0 |
| 20260902005927 | 21 | 54 | 3.2 | 0.0 | 0.00 | 0.00 | 0.00 | 89 | 1018.0 |
| 20260902005917 | 21 | 54 | 3.2 | 3.2 | 0.00 | 0.00 | 0.00 | 89 | 1018.0 |
| 20260902005839 | 21 | 6 | 0.0 | 0.0 | 0.00 | 0.00 | 0.00 | 89 | 1018.0 |
| 20260902005808 | 21 | 6 | 0.0 | 0.0 | 0.00 | 0.00 | 0.00 | 89 | 1018.0 |
| 20260902005730 | 21 | 6 | 0.0 | 0.0 | 0.00 | 0.00 | 0.00 | 88 | 1018.0 |
| 20260902005640 | 21 | 6 | 0.0 | 0.0 | 0.00 | 0.00 | 0.00 | 88 | 1018.0 |
| 20260902005630 | 21 | 6 | 3.2 | 0.0 | 0.00 | 0.00 | 0.00 | 88 | 1018.0 |
| 20260902005559 | 21 | 6 | 3.2 | 0.0 | 0.00 | 0.00 | 0.00 | 88 | 1018.0 |
| 20260902005538 | 21 | 6 | 0.0 | 0.0 | 0.00 | 0.00 | 0.00 | 88 | 1018.0 |
| 20260902005506 | 21 | 6 | 0.0 | 0.0 | 0.00 | 0.00 | 0.00 | 88 | 1018.0 |
| 20260902005435 | 21 | 6 | 0.0 | 0.0 | 0.00 | 0.00 | 0.00 | 88 | 1018.0 |
| 20260902005353 | 21 | 6 | 0.0 | 0.0 | 0.00 | 0.00 | 0.00 | 88 | 1018.0 |
| 20260902005322 | 21 | 6 | 1.6 | 0.0 | 0.00 | 0.00 | 0.00 | 87 | 1018.0 |
| 20260902005251 | 21 | 318 | 3.2 | 0.0 | 0.00 | 0.00 | 0.00 | 87 | 1018.0 |
| 20260902005240 | 21 | 318 | 3.2 | 3.2 | 0.00 | 0.00 | 0.00 | 87 | 1018.0 |
| 20260902005228 | 21 | 72 | 3.2 | 0.0 | 0.00 | 0.00 | 0.00 | 89 | 1018.0 |
| 20260902005138 | 21 | 72 | 3.2 | 0.0 | 0.00 | 0.00 | 0.00 | 89 | 1018.0 |
| 20260902005106 | 21 | 72 | 3.2 | 0.0 | 0.00 | 0.00 | 0.00 | 89 | 1018.0 |
| 20260902005035 | 21 | 72 | 3.2 | 0.0 | 0.00 | 0.00 | 0.00 | 88 | 1018.0 |
| 20260902005004 | 21 | 72 | 1.6 | 0.0 | 0.00 | 0.00 | 0.00 | 88 | 1018.0 |
| 20260902004953 | 21 | 72 | 1.6 | 1.6 | 0.00 | 0.00 | 0.00 | 88 | 1018.0 |
| 20260902004915 | 21 | 72 | 3.2 | 0.0 | 0.00 | 0.00 | 0.00 | 88 | 1018.0 |
| 20260902004833 | 21 | 66 | 3.2 | 0.0 | 0.00 | 0.00 | 0.00 | 88 | 1018.0 |
| 20260902004802 | 21 | 66 | 0.0 | 0.0 | 0.00 | 0.00 | 0.00 | 88 | 1018.0 |
| 20260902004728 | 21 | 328 | 3.2 | 0.0 | 0.00 | 0.00 | 0.00 | 86 | 1018.0 |
| 20260902004649 | 21 | 328 | 3.2 | 0.0 | 0.00 | 0.00 | 0.00 | 86 | 1018.0 |
| 20260902004638 | 21 | 328 | 3.2 | 3.2 | 0.00 | 0.00 | 0.00 | 86 | 1018.0 |
| 20260902004610 | 21 | 328 | 0.0 | 0.0 | 0.00 | 0.00 | 0.00 | 84 | 1018.0 |
| 20260902004536 | 21 | 328 | 3.2 | 0.0 | 0.00 | 0.00 | 0.00 | 84 | 1018.0 |
| 20260902004525 | 21 | 328 | 6.4 | 0.0 | 0.00 | 0.00 | 0.00 | 87 | 1018.0 |
| 20260902004454 | 21 | 328 | 6.4 | 0.0 | 0.00 | 0.00 | 0.00 | 87 | 1018.0 |
| 20260902004433 | 21 | 342 | 1.6 | 0.0 | 0.00 | 0.00 | 0.00 | 87 | 1018.0 |
| 20260902004358 | 21 | 342 | 3.2 | 0.0 | 0.00 | 0.00 | 0.00 | 87 | 1018.0 |
| 20260902004337 | 21 | 96 | 0.0 | 0.0 | 0.00 | 0.00 | 0.00 | 90 | 1018.0 |
| 20260902004306 | 21 | 96 | 0.0 | 0.0 | 0.00 | 0.00 | 0.00 | 90 | 1018.0 |
| 20260902004235 | 21 | 98 | 1.6 | 0.0 | 0.00 | 0.00 | 0.00 | 90 | 1018.0 |
| 20260902004153 | 21 | 98 | 0.0 | 0.0 | 0.00 | 0.00 | 0.00 | 90 | 1018.0 |
| 20260902004122 | 21 | 98 | 0.0 | 0.0 | 0.00 | 0.00 | 0.00 | 90 | 1018.0 |
| 20260902004050 | 21 | 98 | 0.0 | 0.0 | 0.00 | 0.00 | 0.00 | 90 | 1018.0 |
| 20260902004019 | 21 | 98 | 0.0 | 0.0 | 0.00 | 0.00 | 0.00 | 90 | 1018.0 |
| 20260902003948 | 21 | 98 | 1.6 | 0.0 | 0.00 | 0.00 | 0.00 | 90 | 1018.0 |
| 20260902003916 | 21 | 98 | 0.0 | 0.0 | 0.00 | 0.00 | 0.00 | 90 | 1018.0 |
| 20260902003831 | 21 | 98 | 0.0 | 0.0 | 0.00 | 0.00 | 0.00 | 89 | 1018.0 |
| 20260902003756 | 21 | 98 | 3.2 | 0.0 | 0.00 | 0.00 | 0.00 | 89 | 1018.0 |
| 20260902003723 | 21 | 98 | 0.0 | 0.0 | 0.00 | 0.00 | 0.00 | 89 | 1018.0 |
| 20260902003654 | 21 | 98 | 3.2 | 0.0 | 0.00 | 0.00 | 0.00 | 89 | 1018.0 |
| 20260902003622 | 21 | 98 | 3.2 | 0.0 | 0.00 | 0.00 | 0.00 | 89 | 1018.0 |
| 20260902003551 | 21 | 98 | 1.6 | 0.0 | 0.00 | 0.00 | 0.00 | 88 | 1018.0 |
| 20260902003541 | 21 | 98 | 1.6 | 1.6 | 0.00 | 0.00 | 0.00 | 88 | 1018.0 |
| 20260902003530 | 21 | 98 | 0.0 | 0.0 | 0.00 | 0.00 | 0.00 | 88 | 1018.0 |
| 20260902003459 | 21 | 98 | 0.0 | 0.0 | 0.00 | 0.00 | 0.00 | 88 | 1018.0 |
| 20260902003428 | 21 | 98 | 0.0 | 0.0 | 0.00 | 0.00 | 0.00 | 88 | 1018.0 |
| 20260902003356 | 21 | 98 | 1.6 | 0.0 | 0.00 | 0.00 | 0.00 | 88 | 1018.0 |
| 20260902003335 | 21 | 98 | 0.0 | 0.0 | 0.00 | 0.00 | 0.00 | 87 | 1018.0 |
| 20260902003304 | 21 | 98 | 0.0 | 0.0 | 0.00 | 0.00 | 0.00 | 87 | 1018.0 |
| 20260902003233 | 21 | 98 | 0.0 | 0.0 | 0.00 | 0.00 | 0.00 | 87 | 1018.0 |
| 20260902003151 | 21 | 98 | 3.2 | 0.0 | 0.00 | 0.00 | 0.00 | 87 | 1018.0 |
| 20260902003120 | 21 | 98 | 3.2 | 0.0 | 0.00 | 0.00 | 0.00 | 87 | 1018.0 |
| 20260902003101 | 21 | 98 | 0.0 | 0.0 | 0.00 | 0.00 | 0.00 | 87 | 1018.0 |
| 20260902003027 | 21 | 98 | 0.0 | 0.0 | 0.00 | 0.00 | 0.00 | 87 | 1018.0 |
| 20260902003007 | 21 | 98 | 1.6 | 0.0 | 0.00 | 0.00 | 0.00 | 87 | 1018.0 |
| 20260902002946 | 21 | 98 | 0.0 | 0.0 | 0.00 | 0.00 | 0.00 | 87 | 1018.0 |
| 20260902002914 | 21 | 98 | 0.0 | 0.0 | 0.00 | 0.00 | 0.00 | 87 | 1018.0 |
| 20260902002843 | 21 | 98 | 0.0 | 0.0 | 0.00 | 0.00 | 0.00 | 87 | 1018.0 |
| 20260902002812 | 21 | 98 | 0.0 | 0.0 | 0.00 | 0.00 | 0.00 | 86 | 1018.0 |
| 20260902002737 | 21 | 98 | 3.2 | 0.0 | 0.00 | 0.00 | 0.00 | 86 | 1018.0 |
| 20260902002714 | 21 | 98 | 0.0 | 0.0 | 0.00 | 0.00 | 0.00 | 86 | 1018.0 |
| 20260902002620 | 21 | 98 | 0.0 | 0.0 | 0.00 | 0.00 | 0.00 | 86 | 1018.0 |
| 20260902002535 | 21 | 98 | 0.0 | 0.0 | 0.00 | 0.00 | 0.00 | 86 | 1018.0 |
| 20260902002504 | 21 | 98 | 0.0 | 0.0 | 0.00 | 0.00 | 0.00 | 86 | 1018.0 |
| 20260902002453 | 21 | 98 | 3.2 | 0.0 | 0.00 | 0.00 | 0.00 | 86 | 1018.0 |
| 20260902002422 | 21 | 98 | 3.2 | 0.0 | 0.00 | 0.00 | 0.00 | 86 | 1018.0 |
| 20260902002401 | 21 | 98 | 0.0 | 0.0 | 0.00 | 0.00 | 0.00 | 86 | 1018.0 |
| 20260902002330 | 21 | 98 | 0.0 | 0.0 | 0.00 | 0.00 | 0.00 | 86 | 1018.0 |
| 20260902002309 | 21 | 98 | 3.2 | 0.0 | 0.00 | 0.00 | 0.00 | 86 | 1018.0 |
| 20260902002255 | 22 | 327 | 3.2 | 0.0 | 0.00 | 0.00 | 0.00 | 85 | 1018.0 |
| 20260902002224 | 22 | 327 | 3.2 | 0.0 | 0.00 | 0.00 | 0.00 | 85 | 1018.0 |
| 20260902002145 | 22 | 324 | 0.0 | 0.0 | 0.00 | 0.00 | 0.00 | 84 | 1018.0 |
| 20260902002114 | 22 | 324 | 1.6 | 0.0 | 0.00 | 0.00 | 0.00 | 84 | 1018.0 |
| 20260902002104 | 22 | 324 | 1.6 | 1.6 | 0.00 | 0.00 | 0.00 | 84 | 1018.0 |
| 20260902002043 | 22 | 330 | 0.0 | 0.0 | 0.00 | 0.00 | 0.00 | 85 | 1018.0 |
| 20260902002011 | 22 | 330 | 0.0 | 0.0 | 0.00 | 0.00 | 0.00 | 85 | 1018.0 |
| 20260902001940 | 22 | 330 | 0.0 | 0.0 | 0.00 | 0.00 | 0.00 | 85 | 1018.0 |
| 20260902001902 | 22 | 330 | 0.0 | 0.0 | 0.00 | 0.00 | 0.00 | 85 | 1018.0 |
| 20260902001834 | 21 | 330 | 0.0 | 0.0 | 0.00 | 0.00 | 0.00 | 84 | 1018.0 |
| 20260902001803 | 21 | 330 | 0.0 | 0.0 | 0.00 | 0.00 | 0.00 | 84 | 1018.0 |
| 20260902001731 | 21 | 330 | 0.0 | 0.0 | 0.00 | 0.00 | 0.00 | 84 | 1018.0 |
| 20260902001709 | 21 | 330 | 3.2 | 0.0 | 0.00 | 0.00 | 0.00 | 84 | 1018.0 |
| 20260902001625 | 21 | 330 | 3.2 | 0.0 | 0.00 | 0.00 | 0.00 | 84 | 1018.0 |
| 20260902001615 | 21 | 330 | 3.2 | 3.2 | 0.00 | 0.00 | 0.00 | 84 | 1018.0 |
| 20260902001533 | 21 | 306 | 3.2 | 0.0 | 0.00 | 0.00 | 0.00 | 85 | 1018.0 |
| 20260902001502 | 21 | 198 | 0.0 | 0.0 | 0.00 | 0.00 | 0.00 | 85 | 1018.0 |
| 20260902001430 | 21 | 198 | 0.0 | 0.0 | 0.00 | 0.00 | 0.00 | 85 | 1018.0 |
| 20260902001359 | 21 | 198 | 0.0 | 0.0 | 0.00 | 0.00 | 0.00 | 85 | 1018.0 |
| 20260902001328 | 21 | 198 | 0.0 | 0.0 | 0.00 | 0.00 | 0.00 | 85 | 1018.0 |
| 20260902001256 | 21 | 198 | 1.6 | 0.0 | 0.00 | 0.00 | 0.00 | 85 | 1018.0 |
| 20260902001218 | 21 | 198 | 1.6 | 0.0 | 0.00 | 0.00 | 0.00 | 85 | 1018.0 |
| 20260902001209 | 21 | 198 | 1.6 | 1.6 | 0.00 | 0.00 | 0.00 | 85 | 1018.0 |
| 20260902001119 | 21 | 198 | 3.2 | 0.0 | 0.00 | 0.00 | 0.00 | 87 | 1018.0 |
| 20260902001037 | 21 | 198 | 3.2 | 0.0 | 0.00 | 0.00 | 0.00 | 87 | 1018.0 |
| 20260902001027 | 21 | 198 | 3.2 | 3.2 | 0.00 | 0.00 | 0.00 | 87 | 1018.0 |
| 20260902001016 | 21 | 174 | 0.0 | 0.0 | 0.00 | 0.00 | 0.00 | 87 | 1018.0 |
| 20260902000945 | 21 | 174 | 0.0 | 0.0 | 0.00 | 0.00 | 0.00 | 87 | 1018.0 |
| 20260902000914 | 21 | 174 | 0.0 | 0.0 | 0.00 | 0.00 | 0.00 | 87 | 1018.0 |
| 20260902000842 | 21 | 174 | 0.0 | 0.0 | 0.00 | 0.00 | 0.00 | 87 | 1018.0 |
| 20260902000754 | 21 | 174 | 0.0 | 0.0 | 0.00 | 0.00 | 0.00 | 87 | 1018.0 |
| 20260902000743 | 21 | 174 | 0.0 | 0.0 | 0.00 | 0.00 | 0.00 | 89 | 1018.0 |
| 20260902000703 | 21 | 174 | 0.0 | 0.0 | 0.00 | 0.00 | 0.00 | 89 | 1018.0 |
| 20260902000613 | 21 | 174 | 0.0 | 0.0 | 0.00 | 0.00 | 0.00 | 89 | 1018.0 |
| 20260902000541 | 21 | 174 | 0.0 | 0.0 | 0.00 | 0.00 | 0.00 | 89 | 1018.0 |
| 20260902000510 | 21 | 174 | 0.0 | 0.0 | 0.00 | 0.00 | 0.00 | 89 | 1018.0 |
| 20260902000439 | 21 | 174 | 0.0 | 0.0 | 0.00 | 0.00 | 0.00 | 89 | 1018.0 |
| 20260902000408 | 21 | 174 | 0.0 | 0.0 | 0.00 | 0.00 | 0.00 | 89 | 1018.0 |
| 20260902000337 | 21 | 174 | 0.0 | 0.0 | 0.00 | 0.00 | 0.00 | 89 | 1018.0 |
| 20260902000326 | 21 | 174 | 1.6 | 0.0 | 0.00 | 0.00 | 0.00 | 89 | 1018.0 |
| 20260902000257 | 21 | 174 | 1.6 | 0.0 | 0.00 | 0.00 | 0.00 | 89 | 1018.0 |
| 20260902000223 | 21 | 174 | 0.0 | 0.0 | 0.00 | 0.00 | 0.00 | 89 | 1018.0 |
| 20260902000204 | 21 | 174 | 0.0 | 0.0 | 0.00 | 0.00 | 0.00 | 88 | 1018.0 |
| 20260902000113 | 21 | 174 | 0.0 | 0.0 | 0.00 | 0.00 | 0.00 | 88 | 1018.0 |
| 20260902000035 | 21 | 174 | 0.0 | 0.0 | 0.00 | 0.00 | 0.00 | 88 | 1018.0 |
| 20260902000025 | 21 | 174 | 3.2 | 0.0 | 0.00 | 0.00 | 0.00 | 88 | 1018.0 |
| 20260901235953 | 21 | 174 | 3.2 | 0.0 | 0.00 | 0.00 | 0.00 | 88 | 1018.0 |
| 20260901235919 | 21 | 174 | 3.2 | 0.0 | 0.00 | 0.00 | 0.00 | 88 | 1018.0 |
| 20260901235905 | 21 | 174 | 3.2 | 3.2 | 0.00 | 0.00 | 0.00 | 88 | 1018.0 |
| 20260901235830 | 21 | 174 | 3.2 | 0.0 | 0.00 | 0.00 | 0.00 | 88 | 1018.0 |
| 20260901235759 | 21 | 174 | 0.0 | 0.0 | 0.00 | 0.00 | 0.00 | 88 | 1018.0 |
| 20260901235738 | 21 | 174 | 1.6 | 0.0 | 0.00 | 0.00 | 0.00 | 87 | 1018.0 |
| 20260901235701 | 21 | 174 | 0.0 | 0.0 | 0.00 | 0.00 | 0.00 | 87 | 1018.0 |
| 20260901235621 | 21 | 174 | 0.0 | 0.0 | 0.00 | 0.00 | 0.00 | 87 | 1018.0 |
| 20260901235536 | 21 | 174 | 0.0 | 0.0 | 0.00 | 0.00 | 0.00 | 87 | 1018.0 |
| 20260901235505 | 21 | 174 | 0.0 | 0.0 | 0.00 | 0.00 | 0.00 | 87 | 1018.0 |
| 20260901235433 | 22 | 174 | 0.0 | 0.0 | 0.00 | 0.00 | 0.00 | 85 | 1018.0 |
| 20260901235402 | 22 | 174 | 3.2 | 0.0 | 0.00 | 0.00 | 0.00 | 85 | 1018.0 |
| 20260901235331 | 22 | 174 | 3.2 | 0.0 | 0.00 | 0.00 | 0.00 | 85 | 1018.0 |
| 20260901235259 | 22 | 174 | 3.2 | 0.0 | 0.00 | 0.00 | 0.00 | 85 | 1018.0 |
| 20260901235249 | 22 | 282 | 0.0 | 0.0 | 0.00 | 0.00 | 0.00 | 85 | 1018.0 |
| 20260901235218 | 22 | 282 | 0.0 | 0.0 | 0.00 | 0.00 | 0.00 | 85 | 1018.0 |
| 20260901235158 | 22 | 283 | 0.0 | 0.0 | 0.00 | 0.00 | 0.00 | 85 | 1018.0 |
| 20260901235118 | 22 | 288 | 0.0 | 0.0 | 0.00 | 0.00 | 0.00 | 85 | 1018.0 |
| 20260901235030 | 22 | 288 | 0.0 | 0.0 | 0.00 | 0.00 | 0.00 | 85 | 1018.0 |
| 20260901235019 | 22 | 288 | 3.2 | 0.0 | 0.00 | 0.00 | 0.00 | 85 | 1018.0 |
| 20260901234948 | 22 | 288 | 3.2 | 0.0 | 0.00 | 0.00 | 0.00 | 85 | 1018.0 |
| 20260901234913 | 22 | 288 | 3.2 | 0.0 | 0.00 | 0.00 | 0.00 | 85 | 1018.0 |
| 20260901234849 | 22 | 310 | 0.0 | 0.0 | 0.00 | 0.00 | 0.00 | 85 | 1018.0 |
| 20260901234804 | 22 | 310 | 3.2 | 0.0 | 0.00 | 0.00 | 0.00 | 85 | 1018.0 |
| 20260901234753 | 22 | 310 | 3.2 | 3.2 | 0.00 | 0.00 | 0.00 | 85 | 1018.0 |
| 20260901234718 | 22 | 305 | 3.2 | 0.0 | 0.00 | 0.00 | 0.00 | 85 | 1018.0 |
| 20260901234627 | 22 | 310 | 3.2 | 0.0 | 0.00 | 0.00 | 0.00 | 85 | 1018.0 |
| 20260901234555 | 22 | 310 | 3.2 | 0.0 | 0.00 | 0.00 | 0.00 | 85 | 1018.0 |
| 20260901234544 | 22 | 300 | 3.2 | 0.0 | 0.00 | 0.00 | 0.00 | 85 | 1018.0 |
| 20260901234513 | 22 | 300 | 3.2 | 0.0 | 0.00 | 0.00 | 0.00 | 85 | 1018.0 |
| 20260901234503 | 22 | 300 | 3.2 | 3.2 | 0.00 | 0.00 | 0.00 | 85 | 1018.0 |
| 20260901234431 | 22 | 306 | 3.2 | 0.0 | 0.00 | 0.00 | 0.00 | 86 | 1018.0 |
| 20260901234400 | 22 | 306 | 3.2 | 0.0 | 0.00 | 0.00 | 0.00 | 86 | 1018.0 |
| 20260901234339 | 22 | 306 | 1.6 | 0.0 | 0.00 | 0.00 | 0.00 | 85 | 1018.0 |
| 20260901234308 | 22 | 306 | 1.6 | 0.0 | 0.00 | 0.00 | 0.00 | 85 | 1018.0 |
| 20260901234247 | 22 | 306 | 3.2 | 0.0 | 0.00 | 0.00 | 0.00 | 85 | 1018.0 |
| 20260901234236 | 22 | 310 | 3.2 | 0.0 | 0.00 | 0.00 | 0.00 | 85 | 1018.0 |
| 20260901234205 | 22 | 310 | 3.2 | 0.0 | 0.00 | 0.00 | 0.00 | 85 | 1018.0 |
| 20260901234116 | 22 | 310 | 3.2 | 0.0 | 0.00 | 0.00 | 0.00 | 85 | 1018.0 |
| 20260901234102 | 22 | 310 | 3.2 | 3.2 | 0.00 | 0.00 | 0.00 | 85 | 1018.0 |
| 20260901234052 | 22 | 150 | 3.2 | 0.0 | 0.00 | 0.00 | 0.00 | 85 | 1018.0 |
| 20260901234021 | 22 | 150 | 3.2 | 0.0 | 0.00 | 0.00 | 0.00 | 85 | 1018.0 |
| 20260901233949 | 22 | 150 | 3.2 | 0.0 | 0.00 | 0.00 | 0.00 | 85 | 1018.0 |
| 20260901233932 | 22 | 289 | 3.2 | 0.0 | 0.00 | 0.00 | 0.00 | 85 | 1018.0 |
| 20260901233857 | 22 | 289 | 3.2 | 0.0 | 0.00 | 0.00 | 0.00 | 85 | 1018.0 |
| 20260901233823 | 22 | 289 | 0.0 | 0.0 | 0.00 | 0.00 | 0.00 | 85 | 1018.0 |
| 20260901233751 | 22 | 290 | 1.6 | 0.0 | 0.00 | 0.00 | 0.00 | 84 | 1018.0 |
| 20260901233741 | 22 | 290 | 1.6 | 1.6 | 0.00 | 0.00 | 0.00 | 84 | 1018.0 |
| 20260901233709 | 22 | 289 | 3.2 | 0.0 | 0.00 | 0.00 | 0.00 | 84 | 1018.0 |
| 20260901233624 | 22 | 290 | 3.2 | 0.0 | 0.00 | 0.00 | 0.00 | 84 | 1018.0 |
| 20260901233614 | 22 | 288 | 6.4 | 0.0 | 0.00 | 0.00 | 0.00 | 84 | 1018.0 |
| 20260901233542 | 22 | 288 | 6.4 | 0.0 | 0.00 | 0.00 | 0.00 | 84 | 1018.0 |
| 20260901233511 | 22 | 300 | 1.6 | 0.0 | 0.00 | 0.00 | 0.00 | 84 | 1018.0 |
| 20260901233450 | 22 | 300 | 1.6 | 1.6 | 0.00 | 0.00 | 0.00 | 84 | 1018.0 |
| 20260901233440 | 22 | 299 | 3.2 | 0.0 | 0.00 | 0.00 | 0.00 | 84 | 1018.0 |
| 20260901233408 | 22 | 299 | 3.2 | 0.0 | 0.00 | 0.00 | 0.00 | 84 | 1018.0 |
| 20260901233337 | 22 | 299 | 3.2 | 0.0 | 0.00 | 0.00 | 0.00 | 84 | 1018.0 |
| 20260901233306 | 22 | 299 | 3.2 | 0.0 | 0.00 | 0.00 | 0.00 | 84 | 1018.0 |
| 20260901233245 | 22 | 288 | 3.2 | 0.0 | 0.00 | 0.00 | 0.00 | 84 | 1018.0 |
| 20260901233214 | 22 | 288 | 3.2 | 0.0 | 0.00 | 0.00 | 0.00 | 84 | 1018.0 |
| 20260901233154 | 22 | 277 | 3.2 | 0.0 | 0.00 | 0.00 | 0.00 | 85 | 1018.0 |
| 20260901233114 | 22 | 277 | 3.2 | 0.0 | 0.00 | 0.00 | 0.00 | 85 | 1018.0 |
| 20260901233053 | 22 | 277 | 0.0 | 0.0 | 0.00 | 0.00 | 0.00 | 85 | 1018.0 |
| 20260901233022 | 22 | 277 | 0.0 | 0.0 | 0.00 | 0.00 | 0.00 | 85 | 1018.0 |
| 20260901232951 | 22 | 277 | 0.0 | 0.0 | 0.00 | 0.00 | 0.00 | 85 | 1018.0 |
| 20260901232940 | 22 | 277 | 3.2 | 0.0 | 0.00 | 0.00 | 0.00 | 85 | 1018.0 |
| 20260901232906 | 22 | 277 | 3.2 | 0.0 | 0.00 | 0.00 | 0.00 | 85 | 1018.0 |
| 20260901232831 | 21 | 278 | 1.6 | 0.0 | 0.00 | 0.00 | 0.00 | 86 | 1018.0 |
| 20260901232756 | 21 | 278 | 1.6 | 0.0 | 0.00 | 0.00 | 0.00 | 86 | 1018.0 |
| 20260901232725 | 21 | 278 | 3.2 | 0.0 | 0.00 | 0.00 | 0.00 | 86 | 1018.0 |
| 20260901232704 | 21 | 278 | 3.2 | 3.2 | 0.00 | 0.00 | 0.00 | 86 | 1018.0 |
| 20260901232651 | 21 | 150 | 0.0 | 0.0 | 0.00 | 0.00 | 0.00 | 86 | 1018.0 |
| 20260901232558 | 21 | 150 | 0.0 | 0.0 | 0.00 | 0.00 | 0.00 | 86 | 1018.0 |
| 20260901232537 | 21 | 150 | 3.2 | 0.0 | 0.00 | 0.00 | 0.00 | 87 | 1018.0 |
| 20260901232505 | 21 | 150 | 3.2 | 0.0 | 0.00 | 0.00 | 0.00 | 87 | 1018.0 |
| 20260901232434 | 21 | 276 | 3.2 | 0.0 | 0.00 | 0.00 | 0.00 | 87 | 1018.0 |
| 20260901232424 | 21 | 276 | 0.0 | 0.0 | 0.00 | 0.00 | 0.00 | 87 | 1018.0 |
| 20260901232352 | 21 | 276 | 0.0 | 0.0 | 0.00 | 0.00 | 0.00 | 87 | 1018.0 |
| 20260901232342 | 21 | 270 | 4.8 | 0.0 | 0.00 | 0.00 | 0.00 | 88 | 1018.0 |
| 20260901232311 | 21 | 270 | 4.8 | 0.0 | 0.00 | 0.00 | 0.00 | 88 | 1018.0 |
| 20260901232250 | 21 | 354 | 0.0 | 0.0 | 0.00 | 0.00 | 0.00 | 89 | 1018.0 |
| 20260901232218 | 21 | 354 | 0.0 | 0.0 | 0.00 | 0.00 | 0.00 | 89 | 1018.0 |
| 20260901232157 | 21 | 354 | 0.0 | 0.0 | 0.00 | 0.00 | 0.00 | 90 | 1018.0 |
| 20260901232145 | 21 | 354 | 3.2 | 0.0 | 0.00 | 0.00 | 0.00 | 89 | 1018.0 |
| 20260901232112 | 21 | 354 | 3.2 | 0.0 | 0.00 | 0.00 | 0.00 | 89 | 1018.0 |
| 20260901232102 | 21 | 354 | 3.2 | 3.2 | 0.00 | 0.00 | 0.00 | 89 | 1018.0 |
| 20260901232030 | 21 | 354 | 3.2 | 0.0 | 0.00 | 0.00 | 0.00 | 88 | 1018.0 |
| 20260901232020 | 21 | 354 | 0.0 | 0.0 | 0.00 | 0.00 | 0.00 | 88 | 1018.0 |
| 20260901231949 | 21 | 354 | 0.0 | 0.0 | 0.00 | 0.00 | 0.00 | 88 | 1018.0 |
| 20260901231917 | 21 | 354 | 0.0 | 0.0 | 0.00 | 0.00 | 0.00 | 88 | 1018.0 |
| 20260901231843 | 21 | 354 | 0.0 | 0.0 | 0.00 | 0.00 | 0.00 | 88 | 1018.0 |
| 20260901231740 | 21 | 354 | 0.0 | 0.0 | 0.00 | 0.00 | 0.00 | 88 | 1018.0 |
| 20260901231705 | 21 | 354 | 0.0 | 0.0 | 0.00 | 0.00 | 0.00 | 88 | 1018.0 |
| 20260901231616 | 21 | 354 | 0.0 | 0.0 | 0.00 | 0.00 | 0.00 | 88 | 1018.0 |
| 20260901231535 | 21 | 354 | 0.0 | 0.0 | 0.00 | 0.00 | 0.00 | 89 | 1018.0 |
| 20260901231503 | 21 | 354 | 0.0 | 0.0 | 0.00 | 0.00 | 0.00 | 89 | 1018.0 |
| 20260901231453 | 21 | 354 | 1.6 | 0.0 | 0.00 | 0.00 | 0.00 | 89 | 1018.0 |
| 20260901231422 | 21 | 354 | 1.6 | 0.0 | 0.00 | 0.00 | 0.00 | 89 | 1018.0 |
| 20260901231350 | 21 | 354 | 0.0 | 0.0 | 0.00 | 0.00 | 0.00 | 89 | 1018.0 |
| 20260901231319 | 21 | 354 | 0.0 | 0.0 | 0.00 | 0.00 | 0.00 | 89 | 1018.0 |
| 20260901231248 | 21 | 354 | 0.0 | 0.0 | 0.00 | 0.00 | 0.00 | 89 | 1018.0 |
| 20260901231216 | 21 | 354 | 0.0 | 0.0 | 0.00 | 0.00 | 0.00 | 89 | 1018.0 |
| 20260901231140 | 21 | 354 | 0.0 | 0.0 | 0.00 | 0.00 | 0.00 | 89 | 1018.0 |
| 20260901231046 | 21 | 354 | 0.0 | 0.0 | 0.00 | 0.00 | 0.00 | 89 | 1018.0 |
| 20260901231014 | 21 | 354 | 0.0 | 0.0 | 0.00 | 0.00 | 0.00 | 89 | 1018.0 |
| 20260901230943 | 21 | 354 | 1.6 | 0.0 | 0.00 | 0.00 | 0.00 | 90 | 1018.0 |
| 20260901230933 | 21 | 354 | 0.0 | 0.0 | 0.00 | 0.00 | 0.00 | 90 | 1018.0 |
| 20260901230858 | 21 | 354 | 0.0 | 0.0 | 0.00 | 0.00 | 0.00 | 90 | 1018.0 |
| 20260901230820 | 21 | 354 | 0.0 | 0.0 | 0.00 | 0.00 | 0.00 | 90 | 1018.0 |
| 20260901230748 | 21 | 354 | 0.0 | 0.0 | 0.00 | 0.00 | 0.00 | 90 | 1018.0 |
| 20260901230717 | 21 | 354 | 0.0 | 0.0 | 0.00 | 0.00 | 0.00 | 90 | 1018.0 |
| 20260901230640 | 21 | 354 | 0.0 | 0.0 | 0.00 | 0.00 | 0.00 | 90 | 1018.0 |
| 20260901230611 | 21 | 354 | 1.6 | 0.0 | 0.00 | 0.00 | 0.00 | 90 | 1018.0 |
| 20260901230540 | 21 | 354 | 1.6 | 0.0 | 0.00 | 0.00 | 0.00 | 90 | 1018.0 |
| 20260901230529 | 21 | 354 | 1.6 | 1.6 | 0.00 | 0.00 | 0.00 | 90 | 1018.0 |
| 20260901230458 | 21 | 354 | 1.6 | 0.0 | 0.00 | 0.00 | 0.00 | 89 | 1018.0 |
| 20260901230448 | 21 | 354 | 0.0 | 0.0 | 0.00 | 0.00 | 0.00 | 89 | 1018.0 |
| 20260901230416 | 21 | 354 | 0.0 | 0.0 | 0.00 | 0.00 | 0.00 | 89 | 1018.0 |
| 20260901230320 | 21 | 354 | 0.0 | 0.0 | 0.00 | 0.00 | 0.00 | 89 | 1018.0 |
| 20260901230249 | 21 | 354 | 0.0 | 0.0 | 0.00 | 0.00 | 0.00 | 89 | 1018.0 |
| 20260901230208 | 21 | 354 | 0.0 | 0.0 | 0.00 | 0.00 | 0.00 | 89 | 1018.0 |
| 20260901230137 | 21 | 354 | 0.0 | 0.0 | 0.00 | 0.00 | 0.00 | 89 | 1018.0 |
| 20260901230047 | 21 | 354 | 0.0 | 0.0 | 0.00 | 0.00 | 0.00 | 89 | 1018.0 |
| 20260901230009 | 21 | 354 | 0.0 | 0.0 | 0.00 | 0.00 | 0.00 | 89 | 1018.0 |
| 20260901225938 | 21 | 354 | 0.0 | 0.0 | 0.00 | 0.00 | 0.00 | 89 | 1018.0 |
| 20260901225906 | 21 | 354 | 0.0 | 0.0 | 0.00 | 0.00 | 0.00 | 89 | 1018.0 |
| 20260901225828 | 21 | 354 | 0.0 | 0.0 | 0.00 | 0.00 | 0.00 | 89 | 1018.0 |
| 20260901225736 | 21 | 354 | 0.0 | 0.0 | 0.00 | 0.00 | 0.00 | 89 | 1018.0 |
| 20260901225715 | 22 | 354 | 0.0 | 0.0 | 0.00 | 0.00 | 0.00 | 89 | 1018.0 |
| 20260901225637 | 22 | 354 | 0.0 | 0.0 | 0.00 | 0.00 | 0.00 | 89 | 1018.0 |
| 20260901225541 | 21 | 354 | 0.0 | 0.0 | 0.00 | 0.00 | 0.00 | 88 | 1018.0 |
| 20260901225510 | 21 | 354 | 0.0 | 0.0 | 0.00 | 0.00 | 0.00 | 88 | 1018.0 |
| 20260901225438 | 21 | 354 | 0.0 | 0.0 | 0.00 | 0.00 | 0.00 | 88 | 1018.0 |
| 20260901225407 | 21 | 354 | 3.2 | 0.0 | 0.00 | 0.00 | 0.00 | 88 | 1018.0 |
| 20260901225357 | 21 | 354 | 0.0 | 0.0 | 0.00 | 0.00 | 0.00 | 88 | 1018.0 |
| 20260901225325 | 21 | 354 | 3.2 | 0.0 | 0.00 | 0.00 | 0.00 | 88 | 1018.0 |
| 20260901225315 | 21 | 354 | 3.2 | 3.2 | 0.00 | 0.00 | 0.00 | 88 | 1018.0 |
| 20260901225254 | 21 | 354 | 0.0 | 0.0 | 0.00 | 0.00 | 0.00 | 88 | 1018.0 |
| 20260901225223 | 21 | 354 | 0.0 | 0.0 | 0.00 | 0.00 | 0.00 | 88 | 1018.0 |
| 20260901225151 | 21 | 354 | 0.0 | 0.0 | 0.00 | 0.00 | 0.00 | 88 | 1018.0 |
| 20260901225141 | 21 | 354 | 0.0 | 0.0 | 0.00 | 0.00 | 0.00 | 89 | 1018.0 |
| 20260901225103 | 21 | 354 | 0.0 | 0.0 | 0.00 | 0.00 | 0.00 | 89 | 1018.0 |
| 20260901225031 | 21 | 354 | 0.0 | 0.0 | 0.00 | 0.00 | 0.00 | 89 | 1018.0 |
| 20260901225021 | 21 | 354 | 3.2 | 0.0 | 0.00 | 0.00 | 0.00 | 89 | 1018.0 |
| 20260901224947 | 21 | 354 | 3.2 | 0.0 | 0.00 | 0.00 | 0.00 | 89 | 1018.0 |
| 20260901224915 | 21 | 330 | 3.2 | 0.0 | 0.00 | 0.00 | 0.00 | 89 | 1018.0 |
| 20260901224904 | 21 | 330 | 3.2 | 3.2 | 0.00 | 0.00 | 0.00 | 89 | 1018.0 |
| 20260901224851 | 21 | 24 | 3.2 | 0.0 | 0.00 | 0.00 | 0.00 | 90 | 1018.0 |
| 20260901224826 | 21 | 24 | 3.2 | 3.2 | 0.00 | 0.00 | 0.00 | 90 | 1018.0 |
| 20260901224802 | 21 | 24 | 0.0 | 0.0 | 0.00 | 0.00 | 0.00 | 90 | 1018.0 |
| 20260901224737 | 21 | 24 | 1.6 | 0.0 | 0.00 | 0.00 | 0.00 | 90 | 1018.0 |
| 20260901224706 | 21 | 24 | 1.6 | 0.0 | 0.00 | 0.00 | 0.00 | 90 | 1018.0 |
| 20260901224553 | 21 | 24 | 0.0 | 0.0 | 0.00 | 0.00 | 0.00 | 89 | 1018.0 |
| 20260901224522 | 21 | 24 | 0.0 | 0.0 | 0.00 | 0.00 | 0.00 | 89 | 1018.0 |
| 20260901224450 | 21 | 24 | 0.0 | 0.0 | 0.00 | 0.00 | 0.00 | 89 | 1018.0 |
| 20260901224419 | 21 | 24 | 0.0 | 0.0 | 0.00 | 0.00 | 0.00 | 89 | 1018.0 |
| 20260901224348 | 21 | 24 | 0.0 | 0.0 | 0.00 | 0.00 | 0.00 | 89 | 1018.0 |
| 20260901224316 | 21 | 24 | 0.0 | 0.0 | 0.00 | 0.00 | 0.00 | 89 | 1018.0 |
| 20260901224245 | 21 | 24 | 0.0 | 0.0 | 0.00 | 0.00 | 0.00 | 89 | 1018.0 |
| 20260901224214 | 21 | 24 | 0.0 | 0.0 | 0.00 | 0.00 | 0.00 | 89 | 1018.0 |
| 20260901224142 | 21 | 24 | 0.0 | 0.0 | 0.00 | 0.00 | 0.00 | 89 | 1018.0 |
| 20260901224057 | 21 | 24 | 0.0 | 0.0 | 0.00 | 0.00 | 0.00 | 89 | 1018.0 |
| 20260901224022 | 21 | 24 | 0.0 | 0.0 | 0.00 | 0.00 | 0.00 | 89 | 1018.0 |
| 20260901224001 | 21 | 24 | 0.0 | 0.0 | 0.00 | 0.00 | 0.00 | 88 | 1018.0 |
| 20260901223930 | 21 | 24 | 0.0 | 0.0 | 0.00 | 0.00 | 0.00 | 88 | 1018.0 |
| 20260901223859 | 21 | 24 | 0.0 | 0.0 | 0.00 | 0.00 | 0.00 | 88 | 1018.0 |
| 20260901223821 | 21 | 24 | 0.0 | 0.0 | 0.00 | 0.00 | 0.00 | 88 | 1018.0 |
| 20260901223742 | 21 | 24 | 0.0 | 0.0 | 0.00 | 0.00 | 0.00 | 88 | 1018.0 |
| 20260901223711 | 21 | 24 | 0.0 | 0.0 | 0.00 | 0.00 | 0.00 | 88 | 1018.0 |
| 20260901223701 | 21 | 24 | 0.0 | 0.0 | 0.00 | 0.00 | 0.00 | 89 | 1018.0 |
| 20260901223601 | 21 | 24 | 0.0 | 0.0 | 0.00 | 0.00 | 0.00 | 89 | 1018.0 |
| 20260901223530 | 21 | 24 | 0.0 | 0.0 | 0.00 | 0.00 | 0.00 | 89 | 1018.0 |
| 20260901223459 | 21 | 24 | 0.0 | 0.0 | 0.00 | 0.00 | 0.00 | 89 | 1018.0 |
| 20260901223424 | 21 | 24 | 0.0 | 0.0 | 0.00 | 0.00 | 0.00 | 89 | 1018.0 |
| 20260901223349 | 21 | 24 | 0.0 | 0.0 | 0.00 | 0.00 | 0.00 | 89 | 1018.0 |
| 20260901223318 | 21 | 24 | 0.0 | 0.0 | 0.00 | 0.00 | 0.00 | 89 | 1018.0 |
| 20260901223246 | 21 | 24 | 0.0 | 0.0 | 0.00 | 0.00 | 0.00 | 89 | 1018.0 |
| 20260901223212 | 21 | 24 | 0.0 | 0.0 | 0.00 | 0.00 | 0.00 | 89 | 1018.0 |
| 20260901223131 | 21 | 24 | 0.0 | 0.0 | 0.00 | 0.00 | 0.00 | 89 | 1018.0 |
| 20260901223051 | 21 | 24 | 0.0 | 0.0 | 0.00 | 0.00 | 0.00 | 89 | 1018.0 |
| 20260901223020 | 21 | 24 | 0.0 | 0.0 | 0.00 | 0.00 | 0.00 | 89 | 1018.0 |
| 20260901222949 | 22 | 24 | 1.6 | 0.0 | 0.00 | 0.00 | 0.00 | 88 | 1018.0 |
| 20260901222938 | 22 | 24 | 1.6 | 1.6 | 0.00 | 0.00 | 0.00 | 88 | 1018.0 |
| 20260901222928 | 22 | 24 | 3.2 | 0.0 | 0.00 | 0.00 | 0.00 | 88 | 1018.0 |
| 20260901222857 | 22 | 24 | 3.2 | 0.0 | 0.00 | 0.00 | 0.00 | 88 | 1018.0 |
| 20260901222829 | 22 | 24 | 0.0 | 0.0 | 0.00 | 0.00 | 0.00 | 88 | 1018.0 |
| 20260901222716 | 22 | 24 | 0.0 | 0.0 | 0.00 | 0.00 | 0.00 | 88 | 1018.0 |
| 20260901222641 | 22 | 24 | 0.0 | 0.0 | 0.00 | 0.00 | 0.00 | 88 | 1018.0 |
| 20260901222531 | 22 | 24 | 1.6 | 0.0 | 0.00 | 0.00 | 0.00 | 88 | 1018.0 |
| 20260901222500 | 22 | 24 | 3.2 | 0.0 | 0.00 | 0.00 | 0.00 | 86 | 1018.0 |
| 20260901222450 | 22 | 342 | 3.2 | 0.0 | 0.00 | 0.00 | 0.00 | 86 | 1018.0 |
| 20260901222418 | 22 | 342 | 3.2 | 0.0 | 0.00 | 0.00 | 0.00 | 86 | 1018.0 |
| 20260901222347 | 21 | 342 | 0.0 | 0.0 | 0.00 | 0.00 | 0.00 | 89 | 1018.0 |
| 20260901222316 | 21 | 342 | 3.2 | 0.0 | 0.00 | 0.00 | 0.00 | 89 | 1018.0 |
| 20260901222244 | 21 | 342 | 3.2 | 0.0 | 0.00 | 0.00 | 0.00 | 89 | 1018.0 |
| 20260901222213 | 21 | 342 | 3.2 | 0.0 | 0.00 | 0.00 | 0.00 | 89 | 1018.0 |
| 20260901222203 | 21 | 342 | 3.2 | 3.2 | 0.00 | 0.00 | 0.00 | 89 | 1018.0 |
| 20260901222142 | 21 | 342 | 1.6 | 0.0 | 0.00 | 0.00 | 0.00 | 89 | 1018.0 |
| 20260901222131 | 21 | 342 | 0.0 | 0.0 | 0.00 | 0.00 | 0.00 | 89 | 1018.0 |
| 20260901222039 | 21 | 342 | 0.0 | 0.0 | 0.00 | 0.00 | 0.00 | 89 | 1018.0 |
| 20260901222008 | 21 | 342 | 0.0 | 0.0 | 0.00 | 0.00 | 0.00 | 89 | 1018.0 |
| 20260901221936 | 21 | 342 | 0.0 | 0.0 | 0.00 | 0.00 | 0.00 | 89 | 1018.0 |
| 20260901221905 | 21 | 342 | 0.0 | 0.0 | 0.00 | 0.00 | 0.00 | 89 | 1018.0 |
| 20260901221855 | 22 | 342 | 1.6 | 0.0 | 0.00 | 0.00 | 0.00 | 89 | 1018.0 |
| 20260901221820 | 22 | 342 | 1.6 | 0.0 | 0.00 | 0.00 | 0.00 | 89 | 1018.0 |
| 20260901221810 | 22 | 342 | 1.6 | 0.0 | 0.00 | 0.00 | 0.00 | 88 | 1018.0 |
| 20260901221703 | 22 | 342 | 0.0 | 0.0 | 0.00 | 0.00 | 0.00 | 89 | 1018.0 |
| 20260901221631 | 22 | 342 | 0.0 | 0.0 | 0.00 | 0.00 | 0.00 | 88 | 1018.0 |
| 20260901221543 | 22 | 342 | 0.0 | 0.0 | 0.00 | 0.00 | 0.00 | 88 | 1018.0 |
| 20260901221512 | 22 | 342 | 0.0 | 0.0 | 0.00 | 0.00 | 0.00 | 88 | 1018.0 |
| 20260901221502 | 22 | 342 | 3.2 | 0.0 | 0.00 | 0.00 | 0.00 | 88 | 1018.0 |
| 20260901221430 | 22 | 342 | 3.2 | 0.0 | 0.00 | 0.00 | 0.00 | 88 | 1018.0 |
| 20260901221420 | 22 | 342 | 0.0 | 0.0 | 0.00 | 0.00 | 0.00 | 88 | 1018.0 |
| 20260901221348 | 22 | 342 | 0.0 | 0.0 | 0.00 | 0.00 | 0.00 | 88 | 1018.0 |
| 20260901221317 | 22 | 342 | 0.0 | 0.0 | 0.00 | 0.00 | 0.00 | 88 | 1018.0 |
| 20260901221246 | 22 | 342 | 0.0 | 0.0 | 0.00 | 0.00 | 0.00 | 88 | 1018.0 |
| 20260901221214 | 22 | 342 | 0.0 | 0.0 | 0.00 | 0.00 | 0.00 | 89 | 1018.0 |
| 20260901221143 | 22 | 342 | 0.0 | 0.0 | 0.00 | 0.00 | 0.00 | 89 | 1018.0 |
| 20260901221047 | 22 | 342 | 0.0 | 0.0 | 0.00 | 0.00 | 0.00 | 89 | 1018.0 |
| 20260901221002 | 22 | 342 | 0.0 | 0.0 | 0.00 | 0.00 | 0.00 | 89 | 1018.0 |
| 20260901220931 | 22 | 342 | 0.0 | 0.0 | 0.00 | 0.00 | 0.00 | 89 | 1018.0 |
| 20260901220910 | 22 | 342 | 0.0 | 0.0 | 0.00 | 0.00 | 0.00 | 88 | 1018.0 |
| 20260901220839 | 22 | 342 | 0.0 | 0.0 | 0.00 | 0.00 | 0.00 | 88 | 1018.0 |
| 20260901220804 | 22 | 342 | 0.0 | 0.0 | 0.00 | 0.00 | 0.00 | 88 | 1018.0 |
| 20260901220719 | 22 | 342 | 1.6 | 0.0 | 0.00 | 0.00 | 0.00 | 88 | 1018.0 |
| 20260901220708 | 22 | 342 | 0.0 | 0.0 | 0.00 | 0.00 | 0.00 | 88 | 1018.0 |
| 20260901220631 | 22 | 342 | 0.0 | 0.0 | 0.00 | 0.00 | 0.00 | 88 | 1018.0 |
| 20260901220552 | 22 | 342 | 0.0 | 0.0 | 0.00 | 0.00 | 0.00 | 88 | 1018.0 |
| 20260901220520 | 22 | 342 | 0.0 | 0.0 | 0.00 | 0.00 | 0.00 | 88 | 1018.0 |
| 20260901220449 | 22 | 342 | 0.0 | 0.0 | 0.00 | 0.00 | 0.00 | 88 | 1018.0 |
| 20260901220418 | 22 | 342 | 0.0 | 0.0 | 0.00 | 0.00 | 0.00 | 88 | 1018.0 |
| 20260901220346 | 22 | 342 | 0.0 | 0.0 | 0.00 | 0.00 | 0.00 | 88 | 1018.0 |
| 20260901220315 | 22 | 342 | 0.0 | 0.0 | 0.00 | 0.00 | 0.00 | 88 | 1018.0 |
| 20260901220244 | 22 | 342 | 1.6 | 0.0 | 0.00 | 0.00 | 0.00 | 88 | 1018.0 |
| 20260901220223 | 22 | 342 | 0.0 | 0.0 | 0.00 | 0.00 | 0.00 | 88 | 1018.0 |
| 20260901220148 | 22 | 342 | 0.0 | 0.0 | 0.00 | 0.00 | 0.00 | 88 | 1018.0 |
| 20260901220049 | 22 | 342 | 1.6 | 0.0 | 0.00 | 0.00 | 0.00 | 88 | 1018.0 |
| 20260901220039 | 22 | 342 | 1.6 | 1.6 | 0.00 | 0.00 | 0.00 | 88 | 1018.0 |
| 20260901220007 | 22 | 342 | 0.0 | 0.0 | 0.00 | 0.00 | 0.00 | 87 | 1018.0 |
| 20260901215936 | 22 | 342 | 1.6 | 0.0 | 0.00 | 0.00 | 0.00 | 87 | 1018.0 |
| 20260901215925 | 22 | 342 | 3.2 | 0.0 | 0.00 | 0.00 | 0.00 | 87 | 1018.0 |
| 20260901215854 | 22 | 342 | 3.2 | 0.0 | 0.00 | 0.00 | 0.00 | 87 | 1018.0 |
| 20260901215833 | 22 | 342 | 0.0 | 0.0 | 0.00 | 0.00 | 0.00 | 87 | 1018.0 |
| 20260901215755 | 22 | 342 | 0.0 | 0.0 | 0.00 | 0.00 | 0.00 | 88 | 1018.0 |
| 20260901215713 | 22 | 342 | 0.0 | 0.0 | 0.00 | 0.00 | 0.00 | 88 | 1018.0 |
| 20260901215642 | 22 | 342 | 0.0 | 0.0 | 0.00 | 0.00 | 0.00 | 88 | 1018.0 |
| 20260901215546 | 22 | 342 | 0.0 | 0.0 | 0.00 | 0.00 | 0.00 | 87 | 1018.0 |
| 20260901215515 | 22 | 342 | 0.0 | 0.0 | 0.00 | 0.00 | 0.00 | 87 | 1018.0 |
| 20260901215440 | 22 | 342 | 0.0 | 0.0 | 0.00 | 0.00 | 0.00 | 87 | 1018.0 |
| 20260901215419 | 22 | 342 | 0.0 | 0.0 | 0.00 | 0.00 | 0.00 | 88 | 1018.0 |
| 20260901215348 | 22 | 342 | 0.0 | 0.0 | 0.00 | 0.00 | 0.00 | 88 | 1018.0 |
| 20260901215316 | 22 | 342 | 0.0 | 0.0 | 0.00 | 0.00 | 0.00 | 88 | 1018.0 |
| 20260901215245 | 22 | 342 | 1.6 | 0.0 | 0.00 | 0.00 | 0.00 | 88 | 1018.0 |
| 20260901215224 | 22 | 342 | 0.0 | 0.0 | 0.00 | 0.00 | 0.00 | 88 | 1018.0 |
| 20260901215153 | 22 | 342 | 0.0 | 0.0 | 0.00 | 0.00 | 0.00 | 88 | 1018.0 |
| 20260901215101 | 22 | 342 | 0.0 | 0.0 | 0.00 | 0.00 | 0.00 | 88 | 1018.0 |
| 20260901215029 | 22 | 342 | 0.0 | 0.0 | 0.00 | 0.00 | 0.00 | 88 | 1018.0 |
| 20260901214958 | 22 | 342 | 0.0 | 0.0 | 0.00 | 0.00 | 0.00 | 88 | 1018.0 |
| 20260901214920 | 22 | 342 | 0.0 | 0.0 | 0.00 | 0.00 | 0.00 | 87 | 1018.0 |
| 20260901214909 | 22 | 342 | 1.6 | 0.0 | 0.00 | 0.00 | 0.00 | 87 | 1018.0 |
| 20260901214838 | 22 | 342 | 1.6 | 0.0 | 0.00 | 0.00 | 0.00 | 87 | 1018.0 |
| 20260901214828 | 22 | 342 | 1.6 | 1.6 | 0.00 | 0.00 | 0.00 | 87 | 1018.0 |
| 20260901214749 | 22 | 342 | 3.2 | 0.0 | 0.00 | 0.00 | 0.00 | 87 | 1018.0 |
| 20260901214722 | 22 | 342 | 1.6 | 0.0 | 0.00 | 0.00 | 0.00 | 87 | 1018.0 |
| 20260901214647 | 22 | 342 | 3.2 | 0.0 | 0.00 | 0.00 | 0.00 | 87 | 1018.0 |
| 20260901214527 | 22 | 342 | 1.6 | 0.0 | 0.00 | 0.00 | 0.00 | 87 | 1018.0 |
| 20260901214516 | 22 | 342 | 1.6 | 1.6 | 0.00 | 0.00 | 0.00 | 87 | 1018.0 |
| 20260901214506 | 22 | 342 | 0.0 | 0.0 | 0.00 | 0.00 | 0.00 | 87 | 1018.0 |
| 20260901214434 | 22 | 342 | 0.0 | 0.0 | 0.00 | 0.00 | 0.00 | 87 | 1018.0 |
| 20260901214403 | 22 | 342 | 1.6 | 0.0 | 0.00 | 0.00 | 0.00 | 87 | 1018.0 |
| 20260901214353 | 22 | 342 | 1.6 | 1.6 | 0.00 | 0.00 | 0.00 | 87 | 1018.0 |
| 20260901214318 | 22 | 342 | 0.0 | 0.0 | 0.00 | 0.00 | 0.00 | 87 | 1018.0 |
| 20260901214257 | 22 | 342 | 3.2 | 0.0 | 0.00 | 0.00 | 0.00 | 87 | 1018.0 |
| 20260901214226 | 22 | 342 | 3.2 | 0.0 | 0.00 | 0.00 | 0.00 | 87 | 1018.0 |
| 20260901214155 | 22 | 342 | 3.2 | 0.0 | 0.00 | 0.00 | 0.00 | 87 | 1018.0 |
| 20260901214144 | 23 | 342 | 0.0 | 0.0 | 0.00 | 0.00 | 0.00 | 86 | 1018.0 |
| 20260901214041 | 23 | 342 | 0.0 | 0.0 | 0.00 | 0.00 | 0.00 | 86 | 1018.0 |
| 20260901214010 | 23 | 342 | 0.0 | 0.0 | 0.00 | 0.00 | 0.00 | 86 | 1018.0 |
| 20260901213939 | 23 | 342 | 0.0 | 0.0 | 0.00 | 0.00 | 0.00 | 86 | 1018.0 |
| 20260901213907 | 23 | 342 | 0.0 | 0.0 | 0.00 | 0.00 | 0.00 | 86 | 1018.0 |
| 20260901213836 | 23 | 342 | 0.0 | 0.0 | 0.00 | 0.00 | 0.00 | 86 | 1018.0 |
| 20260901213758 | 23 | 342 | 3.2 | 0.0 | 0.00 | 0.00 | 0.00 | 86 | 1018.0 |
| 20260901213720 | 23 | 342 | 3.2 | 0.0 | 0.00 | 0.00 | 0.00 | 86 | 1018.0 |
| 20260901213706 | 23 | 334 | 0.0 | 0.0 | 0.00 | 0.00 | 0.00 | 86 | 1018.0 |
| 20260901213634 | 23 | 334 | 0.0 | 0.0 | 0.00 | 0.00 | 0.00 | 86 | 1018.0 |
| 20260901213556 | 23 | 334 | 0.0 | 0.0 | 0.00 | 0.00 | 0.00 | 86 | 1018.0 |
| 20260901213525 | 23 | 334 | 0.0 | 0.0 | 0.00 | 0.00 | 0.00 | 86 | 1018.0 |
| 20260901213453 | 23 | 334 | 0.0 | 0.0 | 0.00 | 0.00 | 0.00 | 86 | 1018.0 |
| 20260901213422 | 23 | 334 | 1.6 | 0.0 | 0.00 | 0.00 | 0.00 | 86 | 1018.0 |
| 20260901213351 | 23 | 334 | 3.2 | 0.0 | 0.00 | 0.00 | 0.00 | 86 | 1018.0 |
| 20260901213340 | 23 | 334 | 3.2 | 3.2 | 0.00 | 0.00 | 0.00 | 86 | 1018.0 |
| 20260901213309 | 23 | 334 | 1.6 | 0.0 | 0.00 | 0.00 | 0.00 | 86 | 1018.0 |
| 20260901213258 | 23 | 334 | 0.0 | 0.0 | 0.00 | 0.00 | 0.00 | 86 | 1018.0 |
| 20260901213227 | 23 | 334 | 0.0 | 0.0 | 0.00 | 0.00 | 0.00 | 86 | 1018.0 |
| 20260901213217 | 23 | 334 | 1.6 | 0.0 | 0.00 | 0.00 | 0.00 | 86 | 1018.0 |
| 20260901213145 | 23 | 334 | 1.6 | 0.0 | 0.00 | 0.00 | 0.00 | 86 | 1018.0 |
| 20260901213039 | 23 | 334 | 0.0 | 0.0 | 0.00 | 0.00 | 0.00 | 86 | 1018.0 |
| 20260901213029 | 23 | 334 | 1.6 | 0.0 | 0.00 | 0.00 | 0.00 | 85 | 1018.0 |
| 20260901213004 | 23 | 334 | 1.6 | 1.6 | 0.00 | 0.00 | 0.00 | 85 | 1018.0 |
| 20260901212933 | 23 | 334 | 0.0 | 0.0 | 0.00 | 0.00 | 0.00 | 85 | 1018.0 |
| 20260901212923 | 23 | 334 | 1.6 | 0.0 | 0.00 | 0.00 | 0.00 | 86 | 1018.0 |
| 20260901212851 | 23 | 334 | 1.6 | 0.0 | 0.00 | 0.00 | 0.00 | 86 | 1018.0 |
| 20260901212841 | 23 | 334 | 1.6 | 1.6 | 0.00 | 0.00 | 0.00 | 86 | 1018.0 |
| 20260901212830 | 23 | 334 | 0.0 | 0.0 | 0.00 | 0.00 | 0.00 | 86 | 1018.0 |
| 20260901212749 | 23 | 334 | 0.0 | 0.0 | 0.00 | 0.00 | 0.00 | 86 | 1018.0 |
| 20260901212714 | 23 | 334 | 0.0 | 0.0 | 0.00 | 0.00 | 0.00 | 85 | 1018.0 |
| 20260901212643 | 23 | 334 | 0.0 | 0.0 | 0.00 | 0.00 | 0.00 | 85 | 1018.0 |
| 20260901212526 | 23 | 334 | 1.6 | 0.0 | 0.00 | 0.00 | 0.00 | 85 | 1018.0 |
| 20260901212516 | 23 | 334 | 1.6 | 1.6 | 0.00 | 0.00 | 0.00 | 85 | 1018.0 |
| 20260901212444 | 23 | 334 | 0.0 | 0.0 | 0.00 | 0.00 | 0.00 | 85 | 1018.0 |
| 20260901212409 | 23 | 334 | 0.0 | 0.0 | 0.00 | 0.00 | 0.00 | 85 | 1018.0 |
| 20260901212335 | 23 | 334 | 0.0 | 0.0 | 0.00 | 0.00 | 0.00 | 85 | 1018.0 |
| 20260901212306 | 22 | 334 | 1.6 | 0.0 | 0.00 | 0.00 | 0.00 | 86 | 1018.0 |
| 20260901212232 | 22 | 334 | 1.6 | 0.0 | 0.00 | 0.00 | 0.00 | 86 | 1018.0 |
| 20260901212201 | 22 | 334 | 1.6 | 0.0 | 0.00 | 0.00 | 0.00 | 86 | 1018.0 |
| 20260901212150 | 22 | 334 | 1.6 | 1.6 | 0.00 | 0.00 | 0.00 | 86 | 1018.0 |
| 20260901212131 | 22 | 334 | 0.0 | 0.0 | 0.00 | 0.00 | 0.00 | 85 | 1018.0 |
| 20260901212041 | 22 | 334 | 0.0 | 0.0 | 0.00 | 0.00 | 0.00 | 85 | 1018.0 |
| 20260901212031 | 22 | 334 | 1.6 | 0.0 | 0.00 | 0.00 | 0.00 | 85 | 1018.0 |
| 20260901211959 | 22 | 334 | 1.6 | 0.0 | 0.00 | 0.00 | 0.00 | 85 | 1018.0 |
| 20260901211928 | 22 | 334 | 3.2 | 0.0 | 0.00 | 0.00 | 0.00 | 86 | 1018.0 |
| 20260901211917 | 22 | 334 | 3.2 | 3.2 | 0.00 | 0.00 | 0.00 | 86 | 1018.0 |
| 20260901211846 | 22 | 334 | 3.2 | 0.0 | 0.00 | 0.00 | 0.00 | 86 | 1018.0 |
| 20260901211835 | 22 | 334 | 0.0 | 0.0 | 0.00 | 0.00 | 0.00 | 86 | 1018.0 |
| 20260901211804 | 22 | 334 | 0.0 | 0.0 | 0.00 | 0.00 | 0.00 | 86 | 1018.0 |
| 20260901211729 | 22 | 334 | 0.0 | 0.0 | 0.00 | 0.00 | 0.00 | 87 | 1018.0 |
| 20260901211644 | 22 | 334 | 1.6 | 0.0 | 0.00 | 0.00 | 0.00 | 87 | 1018.0 |
| 20260901211545 | 22 | 334 | 0.0 | 0.0 | 0.00 | 0.00 | 0.00 | 89 | 1018.0 |
| 20260901211514 | 22 | 334 | 0.0 | 0.0 | 0.00 | 0.00 | 0.00 | 89 | 1018.0 |
| 20260901211442 | 22 | 334 | 0.0 | 0.0 | 0.00 | 0.00 | 0.00 | 89 | 1018.0 |
| 20260901211421 | 22 | 334 | 3.2 | 0.0 | 0.00 | 0.00 | 0.00 | 89 | 1018.0 |
| 20260901211347 | 22 | 334 | 3.2 | 0.0 | 0.00 | 0.00 | 0.00 | 89 | 1018.0 |
| 20260901211315 | 22 | 334 | 3.2 | 0.0 | 0.00 | 0.00 | 0.00 | 89 | 1018.0 |
| 20260901211305 | 22 | 334 | 3.2 | 3.2 | 0.00 | 0.00 | 0.00 | 89 | 1018.0 |
| 20260901211233 | 22 | 334 | 3.2 | 0.0 | 0.00 | 0.00 | 0.00 | 88 | 1018.0 |
| 20260901211213 | 22 | 334 | 0.0 | 0.0 | 0.00 | 0.00 | 0.00 | 88 | 1018.0 |
| 20260901211141 | 22 | 334 | 0.0 | 0.0 | 0.00 | 0.00 | 0.00 | 88 | 1018.0 |
| 20260901211039 | 22 | 334 | 0.0 | 0.0 | 0.00 | 0.00 | 0.00 | 88 | 1018.0 |
| 20260901211007 | 22 | 334 | 0.0 | 0.0 | 0.00 | 0.00 | 0.00 | 87 | 1018.0 |
| 20260901210936 | 22 | 334 | 0.0 | 0.0 | 0.00 | 0.00 | 0.00 | 87 | 1018.0 |
| 20260901210905 | 22 | 334 | 0.0 | 0.0 | 0.00 | 0.00 | 0.00 | 87 | 1018.0 |
| 20260901210844 | 22 | 334 | 0.0 | 0.0 | 0.00 | 0.00 | 0.00 | 88 | 1018.0 |
| 20260901210813 | 22 | 334 | 0.0 | 0.0 | 0.00 | 0.00 | 0.00 | 88 | 1018.0 |
| 20260901210741 | 22 | 334 | 0.0 | 0.0 | 0.00 | 0.00 | 0.00 | 88 | 1018.0 |
| 20260901210639 | 22 | 334 | 0.0 | 0.0 | 0.00 | 0.00 | 0.00 | 88 | 1018.0 |
| 20260901210629 | 22 | 334 | 0.0 | 0.0 | 0.00 | 0.00 | 0.00 | 89 | 1018.0 |
| 20260901210547 | 22 | 334 | 0.0 | 0.0 | 0.00 | 0.00 | 0.00 | 89 | 1018.0 |
| 20260901210515 | 22 | 334 | 0.0 | 0.0 | 0.00 | 0.00 | 0.00 | 89 | 1018.0 |
| 20260901210444 | 22 | 334 | 0.0 | 0.0 | 0.00 | 0.00 | 0.00 | 89 | 1018.0 |
| 20260901210412 | 22 | 334 | 0.0 | 0.0 | 0.00 | 0.00 | 0.00 | 89 | 1018.0 |
| 20260901210341 | 22 | 334 | 0.0 | 0.0 | 0.00 | 0.00 | 0.00 | 89 | 1018.0 |
| 20260901210310 | 22 | 334 | 0.0 | 0.0 | 0.00 | 0.00 | 0.00 | 89 | 1018.0 |
| 20260901210235 | 22 | 334 | 1.6 | 0.0 | 0.00 | 0.00 | 0.00 | 89 | 1018.0 |
| 20260901210224 | 22 | 334 | 0.0 | 0.0 | 0.00 | 0.00 | 0.00 | 89 | 1018.0 |
| 20260901210153 | 22 | 334 | 0.0 | 0.0 | 0.00 | 0.00 | 0.00 | 89 | 1018.0 |
| 20260901210143 | 22 | 334 | 0.0 | 0.0 | 0.00 | 0.00 | 0.00 | 88 | 1018.0 |
| 20260901210030 | 23 | 334 | 0.0 | 0.0 | 0.00 | 0.00 | 0.00 | 88 | 1018.0 |
| 20260901205958 | 23 | 334 | 0.0 | 0.0 | 0.00 | 0.00 | 0.00 | 88 | 1018.0 |
| 20260901205927 | 23 | 334 | 0.0 | 0.0 | 0.00 | 0.00 | 0.00 | 88 | 1018.0 |
| 20260901205849 | 23 | 334 | 0.0 | 0.0 | 0.00 | 0.00 | 0.00 | 88 | 1018.0 |
| 20260901205810 | 23 | 334 | 0.0 | 0.0 | 0.00 | 0.00 | 0.00 | 88 | 1018.0 |
| 20260901205736 | 23 | 334 | 0.0 | 0.0 | 0.00 | 0.00 | 0.00 | 88 | 1018.0 |
| 20260901205640 | 23 | 334 | 0.0 | 0.0 | 0.00 | 0.00 | 0.00 | 89 | 1018.0 |
| 20260901205530 | 23 | 334 | 0.0 | 0.0 | 0.00 | 0.00 | 0.00 | 89 | 1018.0 |
| 20260901205520 | 23 | 334 | 0.0 | 0.0 | 0.00 | 0.00 | 0.00 | 88 | 1018.0 |
| 20260901205449 | 23 | 334 | 0.0 | 0.0 | 0.00 | 0.00 | 0.00 | 88 | 1018.0 |
| 20260901205417 | 23 | 334 | 0.0 | 0.0 | 0.00 | 0.00 | 0.00 | 88 | 1018.0 |
| 20260901205339 | 23 | 334 | 0.0 | 0.0 | 0.00 | 0.00 | 0.00 | 88 | 1018.0 |
| 20260901205308 | 23 | 334 | 0.0 | 0.0 | 0.00 | 0.00 | 0.00 | 88 | 1018.0 |
| 20260901205236 | 23 | 334 | 0.0 | 0.0 | 0.00 | 0.00 | 0.00 | 88 | 1018.0 |
| 20260901205205 | 23 | 334 | 0.0 | 0.0 | 0.00 | 0.00 | 0.00 | 88 | 1018.0 |
| 20260901205134 | 23 | 334 | 0.0 | 0.0 | 0.00 | 0.00 | 0.00 | 88 | 1018.0 |
| 20260901205055 | 23 | 334 | 0.0 | 0.0 | 0.00 | 0.00 | 0.00 | 88 | 1018.0 |
| 20260901205024 | 23 | 334 | 0.0 | 0.0 | 0.00 | 0.00 | 0.00 | 88 | 1018.0 |
| 20260901204953 | 23 | 334 | 0.0 | 0.0 | 0.00 | 0.00 | 0.00 | 88 | 1018.0 |
| 20260901204914 | 23 | 334 | 0.0 | 0.0 | 0.00 | 0.00 | 0.00 | 88 | 1018.0 |
| 20260901204843 | 23 | 334 | 0.0 | 0.0 | 0.00 | 0.00 | 0.00 | 88 | 1018.0 |
| 20260901204812 | 23 | 334 | 0.0 | 0.0 | 0.00 | 0.00 | 0.00 | 88 | 1018.0 |
| 20260901204737 | 23 | 334 | 0.0 | 0.0 | 0.00 | 0.00 | 0.00 | 88 | 1018.0 |
| 20260901204631 | 23 | 334 | 0.0 | 0.0 | 0.00 | 0.00 | 0.00 | 87 | 1018.0 |
| 20260901204553 | 23 | 334 | 0.0 | 0.0 | 0.00 | 0.00 | 0.00 | 87 | 1018.0 |
| 20260901204511 | 23 | 334 | 0.0 | 0.0 | 0.00 | 0.00 | 0.00 | 87 | 1018.0 |
| 20260901204440 | 23 | 334 | 0.0 | 0.0 | 0.00 | 0.00 | 0.00 | 85 | 1018.0 |
| 20260901204408 | 23 | 334 | 0.0 | 0.0 | 0.00 | 0.00 | 0.00 | 85 | 1018.0 |
| 20260901204334 | 23 | 334 | 0.0 | 0.0 | 0.00 | 0.00 | 0.00 | 85 | 1018.0 |
| 20260901204302 | 23 | 334 | 0.0 | 0.0 | 0.00 | 0.00 | 0.00 | 85 | 1018.0 |
| 20260901204231 | 23 | 334 | 0.0 | 0.0 | 0.00 | 0.00 | 0.00 | 85 | 1018.0 |
| 20260901204200 | 23 | 334 | 0.0 | 0.0 | 0.00 | 0.00 | 0.00 | 85 | 1018.0 |
| 20260901204128 | 23 | 334 | 0.0 | 0.0 | 0.00 | 0.00 | 0.00 | 85 | 1018.0 |
| 20260901204119 | 23 | 334 | 0.0 | 0.0 | 0.00 | 0.00 | 0.00 | 87 | 1018.0 |
| 20260901204040 | 23 | 334 | 0.0 | 0.0 | 0.00 | 0.00 | 0.00 | 87 | 1018.0 |
| 20260901204008 | 23 | 334 | 0.0 | 0.0 | 0.00 | 0.00 | 0.00 | 87 | 1018.0 |
| 20260901203937 | 23 | 334 | 0.0 | 0.0 | 0.00 | 0.00 | 0.00 | 87 | 1018.0 |
| 20260901203906 | 23 | 334 | 0.0 | 0.0 | 0.00 | 0.00 | 0.00 | 87 | 1018.0 |
| 20260901203834 | 23 | 334 | 0.0 | 0.0 | 0.00 | 0.00 | 0.00 | 88 | 1018.0 |
| 20260901203803 | 23 | 334 | 0.0 | 0.0 | 0.00 | 0.00 | 0.00 | 88 | 1018.0 |
| 20260901203728 | 23 | 334 | 0.0 | 0.0 | 0.00 | 0.00 | 0.00 | 88 | 1018.0 |
| 20260901203626 | 23 | 334 | 0.0 | 0.0 | 0.00 | 0.00 | 0.00 | 88 | 1018.0 |
| 20260901203544 | 23 | 334 | 0.0 | 0.0 | 0.00 | 0.00 | 0.00 | 88 | 1018.0 |
| 20260901203502 | 23 | 334 | 3.2 | 0.0 | 0.00 | 0.00 | 0.00 | 87 | 1018.0 |
| 20260901203451 | 23 | 334 | 3.2 | 3.2 | 0.00 | 0.00 | 0.00 | 87 | 1018.0 |
| 20260901203420 | 23 | 334 | 3.2 | 0.0 | 0.00 | 0.00 | 0.00 | 87 | 1018.0 |
| 20260901203410 | 23 | 334 | 1.6 | 0.0 | 0.00 | 0.00 | 0.00 | 85 | 1018.0 |
| 20260901203338 | 23 | 334 | 1.6 | 0.0 | 0.00 | 0.00 | 0.00 | 85 | 1018.0 |
| 20260901203328 | 23 | 334 | 1.6 | 1.6 | 0.00 | 0.00 | 0.00 | 85 | 1018.0 |
| 20260901203257 | 23 | 334 | 0.0 | 0.0 | 0.00 | 0.00 | 0.00 | 84 | 1018.0 |
| 20260901203225 | 23 | 334 | 0.0 | 0.0 | 0.00 | 0.00 | 0.00 | 84 | 1018.0 |
| 20260901203154 | 23 | 334 | 0.0 | 0.0 | 0.00 | 0.00 | 0.00 | 84 | 1018.0 |
| 20260901203143 | 23 | 334 | 3.2 | 0.0 | 0.00 | 0.00 | 0.00 | 85 | 1018.0 |
| 20260901203133 | 23 | 334 | 0.0 | 0.0 | 0.00 | 0.00 | 0.00 | 85 | 1018.0 |
| 20260901203044 | 23 | 334 | 0.0 | 0.0 | 0.00 | 0.00 | 0.00 | 85 | 1018.0 |
| 20260901203013 | 23 | 334 | 0.0 | 0.0 | 0.00 | 0.00 | 0.00 | 85 | 1018.0 |
| 20260901202942 | 23 | 334 | 0.0 | 0.0 | 0.00 | 0.00 | 0.00 | 85 | 1018.0 |
| 20260901202910 | 23 | 334 | 0.0 | 0.0 | 0.00 | 0.00 | 0.00 | 85 | 1018.0 |
| 20260901202839 | 23 | 334 | 0.0 | 0.0 | 0.00 | 0.00 | 0.00 | 85 | 1018.0 |
| 20260901202804 | 23 | 334 | 0.0 | 0.0 | 0.00 | 0.00 | 0.00 | 85 | 1018.0 |
| 20260901202730 | 23 | 334 | 0.0 | 0.0 | 0.00 | 0.00 | 0.00 | 85 | 1018.0 |
| 20260901202651 | 23 | 334 | 0.0 | 0.0 | 0.00 | 0.00 | 0.00 | 85 | 1018.0 |
| 20260901202627 | 23 | 334 | 3.2 | 0.0 | 0.00 | 0.00 | 0.00 | 85 | 1018.0 |
| 20260901202616 | 23 | 334 | 3.2 | 3.2 | 0.00 | 0.00 | 0.00 | 85 | 1018.0 |
| 20260901202521 | 23 | 334 | 0.0 | 0.0 | 0.00 | 0.00 | 0.00 | 86 | 1018.0 |
| 20260901202449 | 23 | 334 | 0.0 | 0.0 | 0.00 | 0.00 | 0.00 | 86 | 1018.0 |
| 20260901202418 | 23 | 334 | 0.0 | 0.0 | 0.00 | 0.00 | 0.00 | 86 | 1018.0 |
| 20260901202357 | 23 | 334 | 0.0 | 0.0 | 0.00 | 0.00 | 0.00 | 87 | 1018.0 |
| 20260901202322 | 23 | 334 | 0.0 | 0.0 | 0.00 | 0.00 | 0.00 | 87 | 1018.0 |
| 20260901202251 | 23 | 334 | 0.0 | 0.0 | 0.00 | 0.00 | 0.00 | 87 | 1018.0 |
| 20260901202220 | 23 | 334 | 0.0 | 0.0 | 0.00 | 0.00 | 0.00 | 87 | 1018.0 |
| 20260901202148 | 23 | 334 | 0.0 | 0.0 | 0.00 | 0.00 | 0.00 | 87 | 1018.0 |
| 20260901202108 | 23 | 334 | 0.0 | 0.0 | 0.00 | 0.00 | 0.00 | 87 | 1018.0 |
| 20260901202028 | 23 | 334 | 0.0 | 0.0 | 0.00 | 0.00 | 0.00 | 87 | 1018.0 |
| 20260901201957 | 23 | 334 | 0.0 | 0.0 | 0.00 | 0.00 | 0.00 | 87 | 1018.0 |
| 20260901201926 | 23 | 334 | 0.0 | 0.0 | 0.00 | 0.00 | 0.00 | 87 | 1018.0 |
| 20260901201854 | 23 | 334 | 0.0 | 0.0 | 0.00 | 0.00 | 0.00 | 87 | 1018.0 |
| 20260901201823 | 23 | 334 | 0.0 | 0.0 | 0.00 | 0.00 | 0.00 | 87 | 1018.0 |
| 20260901201752 | 23 | 334 | 0.0 | 0.0 | 0.00 | 0.00 | 0.00 | 87 | 1018.0 |
| 20260901201714 | 23 | 334 | 0.0 | 0.0 | 0.00 | 0.00 | 0.00 | 87 | 1018.0 |
| 20260901201625 | 23 | 334 | 0.0 | 0.0 | 0.00 | 0.00 | 0.00 | 87 | 1018.0 |
| 20260901201522 | 23 | 334 | 0.0 | 0.0 | 0.00 | 0.00 | 0.00 | 87 | 1018.0 |
| 20260901201451 | 23 | 334 | 0.0 | 0.0 | 0.00 | 0.00 | 0.00 | 87 | 1018.0 |
| 20260901201419 | 23 | 334 | 0.0 | 0.0 | 0.00 | 0.00 | 0.00 | 87 | 1018.0 |
| 20260901201359 | 23 | 334 | 0.0 | 0.0 | 0.00 | 0.00 | 0.00 | 88 | 1018.0 |
| 20260901201327 | 23 | 334 | 0.0 | 0.0 | 0.00 | 0.00 | 0.00 | 87 | 1018.0 |
| 20260901201306 | 23 | 334 | 0.0 | 0.0 | 0.00 | 0.00 | 0.00 | 88 | 1018.0 |
| 20260901201246 | 23 | 334 | 0.0 | 0.0 | 0.00 | 0.00 | 0.00 | 87 | 1018.0 |
| 20260901201214 | 23 | 334 | 0.0 | 0.0 | 0.00 | 0.00 | 0.00 | 88 | 1018.0 |
| 20260901201146 | 23 | 334 | 0.0 | 0.0 | 0.00 | 0.00 | 0.00 | 87 | 1018.0 |
| 20260901201106 | 23 | 334 | 0.0 | 0.0 | 0.00 | 0.00 | 0.00 | 87 | 1018.0 |
| 20260901201026 | 23 | 334 | 0.0 | 0.0 | 0.00 | 0.00 | 0.00 | 88 | 1018.0 |
| 20260901200955 | 23 | 334 | 0.0 | 0.0 | 0.00 | 0.00 | 0.00 | 88 | 1018.0 |
| 20260901200924 | 23 | 334 | 0.0 | 0.0 | 0.00 | 0.00 | 0.00 | 87 | 1018.0 |
| 20260901200853 | 23 | 334 | 0.0 | 0.0 | 0.00 | 0.00 | 0.00 | 87 | 1018.0 |
| 20260901200832 | 23 | 334 | 3.2 | 0.0 | 0.00 | 0.00 | 0.00 | 87 | 1018.0 |
| 20260901200811 | 23 | 334 | 1.6 | 0.0 | 0.00 | 0.00 | 0.00 | 87 | 1018.0 |
| 20260901200750 | 23 | 334 | 0.0 | 0.0 | 0.00 | 0.00 | 0.00 | 87 | 1018.0 |
| 20260901200719 | 23 | 334 | 0.0 | 0.0 | 0.00 | 0.00 | 0.00 | 87 | 1018.0 |
| 20260901200647 | 23 | 334 | 0.0 | 0.0 | 0.00 | 0.00 | 0.00 | 87 | 1018.0 |
| 20260901200616 | 23 | 334 | 0.0 | 0.0 | 0.00 | 0.00 | 0.00 | 87 | 1018.0 |
| 20260901200534 | 23 | 334 | 0.0 | 0.0 | 0.00 | 0.00 | 0.00 | 87 | 1018.0 |
| 20260901200452 | 23 | 334 | 0.0 | 0.0 | 0.00 | 0.00 | 0.00 | 87 | 1018.0 |
| 20260901200421 | 23 | 334 | 0.0 | 0.0 | 0.00 | 0.00 | 0.00 | 87 | 1018.0 |
| 20260901200350 | 23 | 334 | 0.0 | 0.0 | 0.00 | 0.00 | 0.00 | 87 | 1018.0 |
| 20260901200318 | 23 | 334 | 0.0 | 0.0 | 0.00 | 0.00 | 0.00 | 87 | 1018.0 |
| 20260901200247 | 23 | 334 | 0.0 | 0.0 | 0.00 | 0.00 | 0.00 | 87 | 1018.0 |
| 20260901200216 | 23 | 334 | 0.0 | 0.0 | 0.00 | 0.00 | 0.00 | 87 | 1018.0 |
| 20260901200144 | 23 | 334 | 0.0 | 0.0 | 0.00 | 0.00 | 0.00 | 87 | 1018.0 |
| 20260901200105 | 23 | 334 | 0.0 | 0.0 | 0.00 | 0.00 | 0.00 | 87 | 1018.0 |
| 20260901200024 | 23 | 334 | 0.0 | 0.0 | 0.00 | 0.00 | 0.00 | 87 | 1018.0 |
| 20260901195953 | 23 | 334 | 0.0 | 0.0 | 0.00 | 0.00 | 0.00 | 87 | 1018.0 |
| 20260901195922 | 23 | 334 | 0.0 | 0.0 | 0.00 | 0.00 | 0.00 | 87 | 1018.0 |
| 20260901195850 | 23 | 334 | 0.0 | 0.0 | 0.00 | 0.00 | 0.00 | 87 | 1018.0 |
| 20260901195815 | 23 | 334 | 0.0 | 0.0 | 0.00 | 0.00 | 0.00 | 87 | 1018.0 |
| 20260901195744 | 23 | 334 | 0.0 | 0.0 | 0.00 | 0.00 | 0.00 | 87 | 1018.0 |
| 20260901195706 | 23 | 334 | 0.0 | 0.0 | 0.00 | 0.00 | 0.00 | 87 | 1018.0 |
| 20260901195624 | 23 | 334 | 0.0 | 0.0 | 0.00 | 0.00 | 0.00 | 87 | 1018.0 |
| 20260901195604 | 23 | 334 | 0.0 | 0.0 | 0.00 | 0.00 | 0.00 | 86 | 1018.0 |
| 20260901195511 | 23 | 334 | 0.0 | 0.0 | 0.00 | 0.00 | 0.00 | 86 | 1018.0 |
| 20260901195450 | 23 | 334 | 1.6 | 0.0 | 0.00 | 0.00 | 0.00 | 86 | 1018.0 |
| 20260901195440 | 23 | 334 | 1.6 | 1.6 | 0.00 | 0.00 | 0.00 | 86 | 1018.0 |
| 20260901195429 | 23 | 334 | 0.0 | 0.0 | 0.00 | 0.00 | 0.00 | 86 | 1018.0 |
| 20260901195358 | 23 | 334 | 0.0 | 0.0 | 0.00 | 0.00 | 0.00 | 86 | 1018.0 |
| 20260901195327 | 23 | 334 | 0.0 | 0.0 | 0.00 | 0.00 | 0.00 | 86 | 1018.0 |
| 20260901195306 | 23 | 334 | 1.6 | 0.0 | 0.00 | 0.00 | 0.00 | 86 | 1018.0 |
| 20260901195245 | 23 | 334 | 3.2 | 0.0 | 0.00 | 0.00 | 0.00 | 86 | 1018.0 |
| 20260901195234 | 23 | 334 | 0.0 | 0.0 | 0.00 | 0.00 | 0.00 | 86 | 1018.0 |
| 20260901195203 | 23 | 334 | 0.0 | 0.0 | 0.00 | 0.00 | 0.00 | 86 | 1018.0 |
| 20260901195132 | 23 | 334 | 0.0 | 0.0 | 0.00 | 0.00 | 0.00 | 86 | 1018.0 |
| 20260901195111 | 23 | 334 | 1.6 | 0.0 | 0.00 | 0.00 | 0.00 | 86 | 1018.0 |
| 20260901195059 | 23 | 334 | 1.6 | 0.0 | 0.00 | 0.00 | 0.00 | 87 | 1018.0 |
| 20260901195015 | 23 | 334 | 3.2 | 0.0 | 0.00 | 0.00 | 0.00 | 87 | 1018.0 |
| 20260901195005 | 23 | 334 | 3.2 | 3.2 | 0.00 | 0.00 | 0.00 | 87 | 1018.0 |
| 20260901194944 | 23 | 334 | 1.6 | 0.0 | 0.00 | 0.00 | 0.00 | 87 | 1018.0 |
| 20260901194923 | 23 | 334 | 0.0 | 0.0 | 0.00 | 0.00 | 0.00 | 87 | 1018.0 |
| 20260901194902 | 23 | 334 | 1.6 | 0.0 | 0.00 | 0.00 | 0.00 | 87 | 1018.0 |
| 20260901194852 | 23 | 334 | 1.6 | 1.6 | 0.00 | 0.00 | 0.00 | 87 | 1018.0 |
| 20260901194831 | 23 | 334 | 3.2 | 0.0 | 0.00 | 0.00 | 0.00 | 87 | 1018.0 |
| 20260901194810 | 23 | 334 | 0.0 | 0.0 | 0.00 | 0.00 | 0.00 | 87 | 1018.0 |
| 20260901194739 | 23 | 334 | 0.0 | 0.0 | 0.00 | 0.00 | 0.00 | 87 | 1018.0 |
| 20260901194707 | 23 | 334 | 0.0 | 0.0 | 0.00 | 0.00 | 0.00 | 87 | 1018.0 |
| 20260901194633 | 23 | 334 | 0.0 | 0.0 | 0.00 | 0.00 | 0.00 | 87 | 1018.0 |
| 20260901194559 | 23 | 334 | 0.0 | 0.0 | 0.00 | 0.00 | 0.00 | 87 | 1018.0 |
| 20260901194455 | 23 | 334 | 0.0 | 0.0 | 0.00 | 0.00 | 0.00 | 87 | 1018.0 |
| 20260901194424 | 23 | 334 | 0.0 | 0.0 | 0.00 | 0.00 | 0.00 | 87 | 1018.0 |
| 20260901194349 | 23 | 334 | 0.0 | 0.0 | 0.00 | 0.00 | 0.00 | 87 | 1018.0 |
| 20260901194318 | 23 | 334 | 0.0 | 0.0 | 0.00 | 0.00 | 0.00 | 87 | 1018.0 |
| 20260901194246 | 23 | 334 | 0.0 | 0.0 | 0.00 | 0.00 | 0.00 | 87 | 1018.0 |
| 20260901194215 | 23 | 334 | 0.0 | 0.0 | 0.00 | 0.00 | 0.00 | 87 | 1018.0 |
| 20260901194144 | 23 | 334 | 0.0 | 0.0 | 0.00 | 0.00 | 0.00 | 87 | 1018.0 |
| 20260901194112 | 23 | 334 | 0.0 | 0.0 | 0.00 | 0.00 | 0.00 | 87 | 1018.0 |
| 20260901194020 | 23 | 334 | 0.0 | 0.0 | 0.00 | 0.00 | 0.00 | 86 | 1018.0 |
| 20260901193949 | 23 | 334 | 0.0 | 0.0 | 0.00 | 0.00 | 0.00 | 86 | 1018.0 |
| 20260901193917 | 23 | 334 | 0.0 | 0.0 | 0.00 | 0.00 | 0.00 | 86 | 1018.0 |
| 20260901193846 | 23 | 334 | 0.0 | 0.0 | 0.00 | 0.00 | 0.00 | 86 | 1018.0 |
| 20260901193814 | 23 | 334 | 0.0 | 0.0 | 0.00 | 0.00 | 0.00 | 86 | 1018.0 |
| 20260901191551 | 23 | 334 | 0.0 | 0.0 | 0.00 | 0.00 | 0.00 | 86 | 1018.0 |
| 20260901182203 | 24 | 334 | 0.0 | 0.0 | 0.00 | 2.57 | 2.57 | 83 | |
| 20260901180203 | 25 | 334 | 0.0 | 0.0 | 0.00 | 2.57 | 2.57 | 80 | |
| 20260901174327 | 25 | 333 | 1.6 | 3.2 | 0.00 | 2.57 | 2.57 | 2 | |
| 20260901173327 | 25 | 333 | 3.2 | 3.2 | 0.00 | 2.57 | 2.57 | 2 | |
| 20260901171616 | 26 | 334 | 3.2 | 3.2 | 0.00 | 2.57 | 2.57 | 12 | |
| 20260901170616 | 26 | 334 | 1.6 | 3.2 | 0.00 | 2.57 | 2.57 | 12 | |
| 20260901165616 | 26 | 334 | 1.6 | 3.2 | 0.00 | 2.57 | 2.57 | 12 | |
| 20260901164616 | 26 | 333 | 1.6 | 3.2 | 0.00 | 2.57 | 2.57 | 2 | |
| 20260901163616 | 26 | 114 | 1.6 | 6.4 | 0.00 | 2.57 | 2.57 | 24 | |
| 20260901161616 | 26 | 114 | 1.6 | 3.2 | 0.00 | 2.57 | 2.57 | 24 | |
| 20260901160616 | 27 | 114 | 3.2 | 4.8 | 0.00 | 2.57 | 2.57 | 24 | |
| 20260901155616 | 27 | 120 | 3.2 | 4.8 | 0.00 | 2.57 | 2.57 | 24 | |
| 20260901153701 | 27 | 114 | 3.2 | 6.4 | 5.92 | 2.57 | 2.57 | 100 | |
| 20260901152701 | 27 | 120 | 4.8 | 8.0 | 5.92 | 2.57 | 2.57 | 100 |